Time,TemperatureF,DewpointF,PressureIn,WindDirection,WindDirectionDegrees,WindSpeedMPH,WindSpeedGustMPH,Humidity,HourlyPrecipIn,Conditions,Clouds,dailyrainin,SoftwareType,DateUTC
2013-01-06 00:00:00,64.0,60.4,30.20,NE,50,0.0,3.0,88,0.00,,---,0.01,VWS V14.01,2013-01-06 05:00:00,
2013-01-06 00:01:00,64.0,60.4,30.20,NE,50,1.0,3.0,88,0.00,,---,0.01,VWS V14.01,2013-01-06 05:01:00,
2013-01-06 00:03:00,64.1,60.5,30.20,NE,50,0.0,1.0,88,0.00,,---,0.00,VWS V14.01,2013-01-06 05:03:00,
2013-01-06 00:06:00,64.0,60.4,30.20,NE,50,1.0,1.0,88,0.00,,---,0.00,VWS V14.01,2013-01-06 05:06:00,
2013-01-06 00:10:00,64.0,60.4,30.20,NE,50,1.0,2.0,88,0.00,,---,0.00,VWS V14.01,2013-01-06 05:10:00,
2013-01-06 00:11:00,64.0,60.4,30.20,NE,50,0.0,1.0,88,0.00,,---,0.00,VWS V14.01,2013-01-06 05:11:00,
2013-01-06 00:12:00,63.9,60.3,30.20,NE,50,0.0,1.0,88,0.00,,---,0.00,VWS V14.01,2013-01-06 05:12:00,
2013-01-06 00:15:00,63.9,60.3,30.20,ESE,105,1.0,2.0,88,0.00,,---,0.00,VWS V14.01,2013-01-06 05:15:00,
2013-01-06 00:16:00,63.8,60.2,30.20,ESE,105,2.0,2.0,88,0.00,,---,0.00,VWS V14.01,2013-01-06 05:16:00,
2013-01-06 00:17:00,63.8,60.2,30.20,ESE,105,1.0,2.0,88,0.00,,---,0.00,VWS V14.01,2013-01-06 05:17:00,
2013-01-06 00:18:00,63.8,60.5,30.20,ESE,105,2.0,2.0,89,0.00,,---,0.00,VWS V14.01,2013-01-06 05:18:00,
2013-01-06 00:21:00,63.8,60.5,30.19,ESE,105,1.0,2.0,89,0.00,,---,0.00,VWS V14.01,2013-01-06 05:21:00,
2013-01-06 00:22:00,63.7,60.4,30.19,ESE,105,1.0,2.0,89,0.00,,---,0.00,VWS V14.01,2013-01-06 05:22:00,
2013-01-06 00:23:00,63.7,60.4,30.19,ESE,105,0.0,2.0,89,0.00,,---,0.00,VWS V14.01,2013-01-06 05:23:00,
2013-01-06 00:26:00,63.7,60.4,30.19,ESE,105,1.0,3.0,89,0.00,,---,0.00,VWS V14.01,2013-01-06 05:26:00,
2013-01-06 00:27:00,63.6,60.3,30.19,ESE,105,0.0,1.0,89,0.00,,---,0.00,VWS V14.01,2013-01-06 05:27:00,
2013-01-06 00:28:00,63.6,60.3,30.19,ESE,105,2.0,2.0,89,0.00,,---,0.00,VWS V14.01,2013-01-06 05:28:00,
2013-01-06 00:31:00,63.6,60.3,30.19,ESE,105,0.0,1.0,89,0.00,,---,0.00,VWS V14.01,2013-01-06 05:31:00,
2013-01-06 00:32:00,63.6,60.3,30.19,ESE,105,0.0,2.0,89,0.00,,---,0.00,VWS V14.01,2013-01-06 05:32:00,
2013-01-06 00:34:00,63.6,60.3,30.19,ESE,105,1.0,2.0,89,0.00,,---,0.00,VWS V14.01,2013-01-06 05:34:00,
2013-01-06 00:36:00,63.6,60.3,30.19,ESE,105,1.0,1.0,89,0.00,,---,0.00,VWS V14.01,2013-01-06 05:36:00,
2013-01-06 00:37:00,63.6,60.6,30.19,ESE,105,2.0,2.0,90,0.00,,---,0.00,VWS V14.01,2013-01-06 05:37:00,
2013-01-06 00:40:00,63.6,60.6,30.19,ESE,103,0.0,3.0,90,0.00,,---,0.00,VWS V14.01,2013-01-06 05:40:00,
2013-01-06 00:41:00,63.6,60.6,30.19,ESE,103,1.0,2.0,90,0.00,,---,0.00,VWS V14.01,2013-01-06 05:41:00,
2013-01-06 00:44:00,63.6,60.6,30.19,ESE,103,2.0,2.0,90,0.00,,---,0.00,VWS V14.01,2013-01-06 05:44:00,
2013-01-06 00:45:00,63.6,60.6,30.19,ESE,103,1.0,2.0,90,0.00,,---,0.00,VWS V14.01,2013-01-06 05:45:00,
2013-01-06 00:46:00,63.6,60.6,30.19,ESE,103,1.0,1.0,90,0.00,,---,0.00,VWS V14.01,2013-01-06 05:46:00,
2013-01-06 00:47:00,63.6,60.6,30.19,ESE,103,0.0,1.0,90,0.00,,---,0.00,VWS V14.01,2013-01-06 05:47:00,
2013-01-06 00:49:00,63.6,60.6,30.19,ESE,103,0.0,1.0,90,0.00,,---,0.00,VWS V14.01,2013-01-06 05:49:00,
2013-01-06 00:50:00,63.6,60.6,30.19,ESE,103,0.0,1.0,90,0.00,,---,0.00,VWS V14.01,2013-01-06 05:50:00,
2013-01-06 00:52:00,63.6,60.6,30.19,ESE,103,1.0,2.0,90,0.00,,---,0.00,VWS V14.01,2013-01-06 05:52:00,
2013-01-06 00:53:00,63.6,60.6,30.19,ESE,103,1.0,2.0,90,0.00,,---,0.00,VWS V14.01,2013-01-06 05:53:00,
2013-01-06 00:55:00,63.6,60.6,30.18,ESE,103,2.0,2.0,90,0.00,,---,0.00,VWS V14.01,2013-01-06 05:55:00,
2013-01-06 00:58:00,63.6,60.6,30.18,ESE,103,1.0,3.0,90,0.00,,---,0.00,VWS V14.01,2013-01-06 05:58:00,
2013-01-06 01:00:00,63.5,60.5,30.18,ESE,103,1.0,3.0,90,0.00,,---,0.00,VWS V14.01,2013-01-06 06:00:00,
2013-01-06 01:01:00,63.5,60.5,30.18,ESE,103,2.0,2.0,90,0.00,,---,0.00,VWS V14.01,2013-01-06 06:01:00,
2013-01-06 01:03:00,63.5,60.5,30.18,ESE,103,0.0,2.0,90,0.00,,---,0.00,VWS V14.01,2013-01-06 06:03:00,
2013-01-06 01:05:00,63.5,60.8,30.18,ESE,103,0.0,2.0,91,0.00,,---,0.00,VWS V14.01,2013-01-06 06:05:00,
2013-01-06 01:06:00,63.5,60.8,30.18,ESE,103,1.0,1.0,91,0.00,,---,0.00,VWS V14.01,2013-01-06 06:06:00,
2013-01-06 01:09:00,63.4,60.7,30.18,ESE,103,1.0,2.0,91,0.00,,---,0.00,VWS V14.01,2013-01-06 06:09:00,
2013-01-06 01:10:00,63.4,60.7,30.18,ESE,103,1.0,2.0,91,0.00,,---,0.00,VWS V14.01,2013-01-06 06:10:00,
2013-01-06 01:11:00,63.4,60.7,30.18,ESE,103,0.0,2.0,91,0.00,,---,0.00,VWS V14.01,2013-01-06 06:11:00,
2013-01-06 01:14:00,63.4,60.7,30.17,East,95,1.0,2.0,91,0.00,,---,0.00,VWS V14.01,2013-01-06 06:14:00,
2013-01-06 01:15:00,63.4,60.7,30.17,East,92,1.0,2.0,91,0.00,,---,0.00,VWS V14.01,2013-01-06 06:15:00,
2013-01-06 01:16:00,63.3,60.6,30.17,East,92,0.0,2.0,91,0.00,,---,0.00,VWS V14.01,2013-01-06 06:16:00,
2013-01-06 01:19:00,63.3,60.6,30.18,East,92,1.0,1.0,91,0.00,,---,0.00,VWS V14.01,2013-01-06 06:19:00,
2013-01-06 01:20:00,63.3,60.6,30.17,East,92,1.0,1.0,91,0.00,,---,0.00,VWS V14.01,2013-01-06 06:20:00,
2013-01-06 01:21:00,63.3,60.6,30.17,East,92,0.0,2.0,91,0.00,,---,0.00,VWS V14.01,2013-01-06 06:21:00,
2013-01-06 01:24:00,63.3,60.6,30.17,East,92,1.0,1.0,91,0.00,,---,0.00,VWS V14.01,2013-01-06 06:24:00,
2013-01-06 01:25:00,63.3,60.6,30.17,East,92,0.0,1.0,91,0.00,,---,0.00,VWS V14.01,2013-01-06 06:25:00,
2013-01-06 01:26:00,63.3,60.6,30.17,East,92,1.0,1.0,91,0.00,,---,0.00,VWS V14.01,2013-01-06 06:26:00,
2013-01-06 01:29:00,63.2,60.5,30.17,East,92,1.0,2.0,91,0.00,,---,0.00,VWS V14.01,2013-01-06 06:29:00,
2013-01-06 01:30:00,63.2,60.5,30.18,East,92,1.0,2.0,91,0.00,,---,0.00,VWS V14.01,2013-01-06 06:30:00,
2013-01-06 01:31:00,63.2,60.5,30.17,East,86,2.0,2.0,91,0.00,,---,0.00,VWS V14.01,2013-01-06 06:31:00,
2013-01-06 01:35:00,63.1,60.7,30.17,East,86,1.0,2.0,92,0.00,,---,0.00,VWS V14.01,2013-01-06 06:35:00,
2013-01-06 01:36:00,63.1,60.7,30.17,East,86,2.0,2.0,92,0.00,,---,0.00,VWS V14.01,2013-01-06 06:36:00,
2013-01-06 01:41:00,63.1,60.7,30.18,East,88,0.0,2.0,92,0.00,,---,0.00,VWS V14.01,2013-01-06 06:41:00,
2013-01-06 01:42:00,63.1,60.7,30.18,East,88,1.0,2.0,92,0.00,,---,0.00,VWS V14.01,2013-01-06 06:42:00,
2013-01-06 01:46:00,63.0,60.6,30.18,East,88,1.0,1.0,92,0.00,,---,0.00,VWS V14.01,2013-01-06 06:46:00,
2013-01-06 01:47:00,63.0,60.6,30.18,East,88,0.0,1.0,92,0.00,,---,0.00,VWS V14.01,2013-01-06 06:47:00,
2013-01-06 01:51:00,62.9,60.5,30.18,East,88,0.0,2.0,92,0.00,,---,0.00,VWS V14.01,2013-01-06 06:51:00,
2013-01-06 01:52:00,62.9,60.5,30.18,East,88,1.0,2.0,92,0.00,,---,0.00,VWS V14.01,2013-01-06 06:52:00,
2013-01-06 01:53:00,62.9,60.5,30.18,East,88,1.0,2.0,92,0.00,,---,0.00,VWS V14.01,2013-01-06 06:53:00,
2013-01-06 01:57:00,62.8,60.5,30.18,East,88,0.0,0.0,92,0.00,,---,0.00,VWS V14.01,2013-01-06 06:57:00,
2013-01-06 01:58:00,62.8,60.5,30.18,East,88,0.0,1.0,92,0.00,,---,0.00,VWS V14.01,2013-01-06 06:58:00,
2013-01-06 02:00:00,62.8,60.5,30.18,East,88,1.0,1.0,92,0.00,,---,0.00,VWS V14.01,2013-01-06 07:00:00,
2013-01-06 02:03:00,62.7,60.3,30.18,East,88,0.0,1.0,92,0.00,,---,0.00,VWS V14.01,2013-01-06 07:03:00,
2013-01-06 02:04:00,62.7,60.3,30.18,East,88,1.0,1.0,92,0.00,,---,0.00,VWS V14.01,2013-01-06 07:04:00,
2013-01-06 02:05:00,62.7,60.3,30.18,East,88,0.0,1.0,92,0.00,,---,0.00,VWS V14.01,2013-01-06 07:05:00,
2013-01-06 02:09:00,62.6,60.5,30.18,East,88,0.0,1.0,93,0.00,,---,0.00,VWS V14.01,2013-01-06 07:09:00,
2013-01-06 02:10:00,62.6,60.5,30.18,East,88,1.0,1.0,93,0.00,,---,0.00,VWS V14.01,2013-01-06 07:10:00,
2013-01-06 02:11:00,62.6,60.5,30.17,East,88,2.0,2.0,93,0.00,,---,0.00,VWS V14.01,2013-01-06 07:11:00,
2013-01-06 02:14:00,62.5,60.5,30.18,East,88,1.0,2.0,93,0.00,,---,0.00,VWS V14.01,2013-01-06 07:14:00,
2013-01-06 02:15:00,62.5,60.5,30.18,East,88,0.0,2.0,93,0.00,,---,0.00,VWS V14.01,2013-01-06 07:15:00,
2013-01-06 02:16:00,62.5,60.5,30.17,East,88,1.0,2.0,93,0.00,,---,0.00,VWS V14.01,2013-01-06 07:16:00,
2013-01-06 02:20:00,62.5,60.5,30.17,East,88,0.0,2.0,93,0.00,,---,0.00,VWS V14.01,2013-01-06 07:20:00,
2013-01-06 02:21:00,62.5,60.5,30.17,East,88,0.0,0.0,93,0.00,,---,0.00,VWS V14.01,2013-01-06 07:21:00,
2013-01-06 02:23:00,62.4,60.3,30.17,East,88,0.0,2.0,93,0.00,,---,0.00,VWS V14.01,2013-01-06 07:23:00,
2013-01-06 02:25:00,62.4,60.3,30.17,East,88,1.0,2.0,93,0.00,,---,0.00,VWS V14.01,2013-01-06 07:25:00,
2013-01-06 02:26:00,62.4,60.3,30.17,East,88,0.0,1.0,93,0.00,,---,0.00,VWS V14.01,2013-01-06 07:26:00,
2013-01-06 02:27:00,62.4,60.3,30.17,East,88,1.0,1.0,93,0.00,,---,0.00,VWS V14.01,2013-01-06 07:27:00,
2013-01-06 02:28:00,62.4,60.3,30.17,East,88,0.0,1.0,93,0.00,,---,0.00,VWS V14.01,2013-01-06 07:28:00,
2013-01-06 02:31:00,62.4,60.3,30.17,East,88,0.0,2.0,93,0.00,,---,0.00,VWS V14.01,2013-01-06 07:31:00,
2013-01-06 02:32:00,62.3,60.2,30.17,East,88,1.0,1.0,93,0.00,,---,0.00,VWS V14.01,2013-01-06 07:32:00,
2013-01-06 02:33:00,62.3,60.2,30.17,East,88,0.0,1.0,93,0.00,,---,0.00,VWS V14.01,2013-01-06 07:33:00,
2013-01-06 02:34:00,62.3,60.2,30.17,East,88,1.0,1.0,93,0.00,,---,0.00,VWS V14.01,2013-01-06 07:34:00,
2013-01-06 02:37:00,62.3,60.2,30.17,East,88,1.0,1.0,93,0.00,,---,0.00,VWS V14.01,2013-01-06 07:37:00,
2013-01-06 02:38:00,62.3,60.2,30.17,East,88,1.0,2.0,93,0.00,,---,0.00,VWS V14.01,2013-01-06 07:38:00,
2013-01-06 02:39:00,62.3,60.6,30.17,East,88,1.0,2.0,94,0.00,,---,0.00,VWS V14.01,2013-01-06 07:39:00,
2013-01-06 02:42:00,62.3,60.6,30.17,East,88,1.0,2.0,94,0.00,,---,0.00,VWS V14.01,2013-01-06 07:42:00,
2013-01-06 02:43:00,62.3,60.6,30.17,East,88,1.0,2.0,94,0.00,,---,0.00,VWS V14.01,2013-01-06 07:43:00,
2013-01-06 02:47:00,62.3,60.6,30.17,East,88,1.0,2.0,94,0.00,,---,0.00,VWS V14.01,2013-01-06 07:47:00,
2013-01-06 02:48:00,62.3,60.6,30.16,East,88,1.0,2.0,94,0.00,,---,0.00,VWS V14.01,2013-01-06 07:48:00,
2013-01-06 02:49:00,62.3,60.6,30.16,East,88,1.0,2.0,94,0.00,,---,0.00,VWS V14.01,2013-01-06 07:49:00,
2013-01-06 02:53:00,62.3,60.6,30.16,East,88,1.0,2.0,94,0.00,,---,0.00,VWS V14.01,2013-01-06 07:53:00,
2013-01-06 02:54:00,62.3,60.6,30.16,East,88,1.0,2.0,94,0.00,,---,0.00,VWS V14.01,2013-01-06 07:54:00,
2013-01-06 02:57:00,62.3,60.6,30.16,East,88,0.0,1.0,94,0.00,,---,0.00,VWS V14.01,2013-01-06 07:57:00,
2013-01-06 02:58:00,62.3,60.6,30.16,East,88,0.0,1.0,94,0.00,,---,0.00,VWS V14.01,2013-01-06 07:58:00,
2013-01-06 02:59:00,62.3,60.6,30.16,East,88,1.0,1.0,94,0.00,,---,0.00,VWS V14.01,2013-01-06 07:59:00,
2013-01-06 03:02:00,62.3,60.6,30.16,East,88,0.0,2.0,94,0.00,,---,0.00,VWS V14.01,2013-01-06 08:02:00,
2013-01-06 03:04:00,62.3,60.6,30.16,East,88,1.0,2.0,94,0.00,,---,0.00,VWS V14.01,2013-01-06 08:04:00,
2013-01-06 03:06:00,62.3,60.6,30.16,East,88,0.0,2.0,94,0.00,,---,0.00,VWS V14.01,2013-01-06 08:06:00,
2013-01-06 03:08:00,62.2,60.5,30.16,East,88,0.0,1.0,94,0.00,,---,0.00,VWS V14.01,2013-01-06 08:08:00,
2013-01-06 03:10:00,62.2,60.5,30.16,East,88,0.0,1.0,94,0.00,,---,0.00,VWS V14.01,2013-01-06 08:10:00,
2013-01-06 03:11:00,62.2,60.5,30.16,East,88,0.0,1.0,94,0.00,,---,0.00,VWS V14.01,2013-01-06 08:11:00,
2013-01-06 03:13:00,62.2,60.5,30.16,East,88,0.0,2.0,94,0.00,,---,0.00,VWS V14.01,2013-01-06 08:13:00,
2013-01-06 03:14:00,62.2,60.5,30.16,East,88,0.0,2.0,94,0.00,,---,0.00,VWS V14.01,2013-01-06 08:14:00,
2013-01-06 03:15:00,62.2,60.5,30.16,East,88,2.0,2.0,94,0.00,,---,0.00,VWS V14.01,2013-01-06 08:15:00,
2013-01-06 03:16:00,62.2,60.5,30.16,East,88,1.0,2.0,94,0.00,,---,0.00,VWS V14.01,2013-01-06 08:16:00,
2013-01-06 03:19:00,62.2,60.5,30.16,East,88,0.0,1.0,94,0.00,,---,0.00,VWS V14.01,2013-01-06 08:19:00,
2013-01-06 03:20:00,62.1,60.4,30.16,East,88,1.0,1.0,94,0.00,,---,0.00,VWS V14.01,2013-01-06 08:20:00,
2013-01-06 03:21:00,62.1,60.4,30.16,East,88,0.0,1.0,94,0.00,,---,0.00,VWS V14.01,2013-01-06 08:21:00,
2013-01-06 03:25:00,62.1,60.4,30.16,East,88,0.0,1.0,94,0.00,,---,0.00,VWS V14.01,2013-01-06 08:25:00,
2013-01-06 03:26:00,62.0,60.3,30.16,East,88,1.0,1.0,94,0.00,,---,0.00,VWS V14.01,2013-01-06 08:26:00,
2013-01-06 03:27:00,62.0,60.3,30.16,East,88,1.0,1.0,94,0.00,,---,0.00,VWS V14.01,2013-01-06 08:27:00,
2013-01-06 03:31:00,62.0,60.3,30.16,East,88,0.0,1.0,94,0.00,,---,0.00,VWS V14.01,2013-01-06 08:31:00,
2013-01-06 03:35:00,61.9,60.2,30.16,East,88,1.0,1.0,94,0.00,,---,0.00,VWS V14.01,2013-01-06 08:35:00,
2013-01-06 03:36:00,61.9,60.2,30.16,East,88,0.0,1.0,94,0.00,,---,0.00,VWS V14.01,2013-01-06 08:36:00,
2013-01-06 03:37:00,61.8,60.1,30.16,East,88,0.0,1.0,94,0.00,,---,0.00,VWS V14.01,2013-01-06 08:37:00,
2013-01-06 03:41:00,61.8,60.1,30.16,East,88,0.0,1.0,94,0.00,,---,0.00,VWS V14.01,2013-01-06 08:41:00,
2013-01-06 03:42:00,61.8,60.1,30.15,East,88,0.0,0.0,94,0.00,,---,0.00,VWS V14.01,2013-01-06 08:42:00,
2013-01-06 03:43:00,61.8,60.1,30.15,East,88,0.0,1.0,94,0.00,,---,0.00,VWS V14.01,2013-01-06 08:43:00,
2013-01-06 03:46:00,61.8,60.1,30.15,East,88,0.0,0.0,94,0.00,,---,0.00,VWS V14.01,2013-01-06 08:46:00,
2013-01-06 03:47:00,61.8,60.1,30.15,East,88,1.0,1.0,94,0.00,,---,0.00,VWS V14.01,2013-01-06 08:47:00,
2013-01-06 03:48:00,61.7,60.0,30.15,East,88,1.0,1.0,94,0.00,,---,0.00,VWS V14.01,2013-01-06 08:48:00,
2013-01-06 03:51:00,61.7,60.0,30.15,East,88,0.0,1.0,94,0.00,,---,0.00,VWS V14.01,2013-01-06 08:51:00,
2013-01-06 03:53:00,61.7,60.0,30.15,East,88,0.0,1.0,94,0.00,,---,0.00,VWS V14.01,2013-01-06 08:53:00,
2013-01-06 03:54:00,61.7,60.0,30.15,East,88,0.0,1.0,94,0.00,,---,0.00,VWS V14.01,2013-01-06 08:54:00,
2013-01-06 03:56:00,61.6,60.2,30.15,East,88,1.0,1.0,95,0.00,,---,0.00,VWS V14.01,2013-01-06 08:56:00,
2013-01-06 03:59:00,61.6,59.9,30.15,East,88,0.0,1.0,94,0.00,,---,0.00,VWS V14.01,2013-01-06 08:59:00,
2013-01-06 04:00:00,61.6,60.2,30.15,East,88,0.0,1.0,95,0.00,,---,0.00,VWS V14.01,2013-01-06 09:00:00,
2013-01-06 04:01:00,61.6,60.2,30.15,East,88,0.0,1.0,95,0.00,,---,0.00,VWS V14.01,2013-01-06 09:01:00,
2013-01-06 04:05:00,61.5,60.1,30.15,East,88,0.0,1.0,95,0.00,,---,0.00,VWS V14.01,2013-01-06 09:05:00,
2013-01-06 04:07:00,61.5,60.1,30.15,East,88,0.0,1.0,95,0.00,,---,0.00,VWS V14.01,2013-01-06 09:07:00,
2013-01-06 04:08:00,61.5,60.1,30.15,East,88,0.0,1.0,95,0.00,,---,0.00,VWS V14.01,2013-01-06 09:08:00,
2013-01-06 04:10:00,61.4,60.0,30.15,East,88,0.0,1.0,95,0.00,,---,0.00,VWS V14.01,2013-01-06 09:10:00,
2013-01-06 04:12:00,61.4,60.0,30.15,East,88,0.0,0.0,95,0.00,,---,0.00,VWS V14.01,2013-01-06 09:12:00,
2013-01-06 04:13:00,61.4,60.0,30.15,East,88,0.0,1.0,95,0.00,,---,0.00,VWS V14.01,2013-01-06 09:13:00,
2013-01-06 04:17:00,61.4,60.0,30.15,East,88,0.0,0.0,95,0.00,,---,0.00,VWS V14.01,2013-01-06 09:17:00,
2013-01-06 04:18:00,61.3,59.9,30.15,East,88,0.0,0.0,95,0.00,,---,0.00,VWS V14.01,2013-01-06 09:18:00,
2013-01-06 04:19:00,61.3,59.9,30.15,East,88,0.0,0.0,95,0.00,,---,0.00,VWS V14.01,2013-01-06 09:19:00,
2013-01-06 04:22:00,61.2,59.8,30.15,East,88,0.0,0.0,95,0.00,,---,0.00,VWS V14.01,2013-01-06 09:22:00,
2013-01-06 04:23:00,61.2,59.8,30.15,East,88,0.0,0.0,95,0.00,,---,0.00,VWS V14.01,2013-01-06 09:23:00,
2013-01-06 04:24:00,61.2,59.8,30.15,East,88,0.0,0.0,95,0.00,,---,0.00,VWS V14.01,2013-01-06 09:24:00,
2013-01-06 04:28:00,61.2,59.8,30.15,East,88,0.0,0.0,95,0.00,,---,0.00,VWS V14.01,2013-01-06 09:28:00,
2013-01-06 04:29:00,61.1,59.7,30.15,East,88,0.0,0.0,95,0.00,,---,0.00,VWS V14.01,2013-01-06 09:29:00,
2013-01-06 04:32:00,61.1,59.7,30.14,East,88,0.0,0.0,95,0.00,,---,0.00,VWS V14.01,2013-01-06 09:32:00,
2013-01-06 04:34:00,61.0,59.6,30.14,East,88,0.0,0.0,95,0.00,,---,0.00,VWS V14.01,2013-01-06 09:34:00,
2013-01-06 04:35:00,61.0,59.6,30.14,East,88,0.0,0.0,95,0.00,,---,0.00,VWS V14.01,2013-01-06 09:35:00,
2013-01-06 04:37:00,60.9,59.5,30.14,East,88,0.0,0.0,95,0.00,,---,0.00,VWS V14.01,2013-01-06 09:37:00,
2013-01-06 04:39:00,60.9,59.5,30.14,East,88,0.0,0.0,95,0.00,,---,0.00,VWS V14.01,2013-01-06 09:39:00,
2013-01-06 04:40:00,60.8,59.4,30.14,East,88,0.0,0.0,95,0.00,,---,0.00,VWS V14.01,2013-01-06 09:40:00,
2013-01-06 04:43:00,60.8,59.4,30.14,East,88,0.0,1.0,95,0.00,,---,0.00,VWS V14.01,2013-01-06 09:43:00,
2013-01-06 04:44:00,60.8,59.4,30.14,East,88,0.0,1.0,95,0.00,,---,0.00,VWS V14.01,2013-01-06 09:44:00,
2013-01-06 04:45:00,60.8,59.4,30.14,East,88,0.0,1.0,95,0.00,,---,0.00,VWS V14.01,2013-01-06 09:45:00,
2013-01-06 04:46:00,60.7,59.3,30.14,East,88,0.0,0.0,95,0.00,,---,0.00,VWS V14.01,2013-01-06 09:46:00,
2013-01-06 04:49:00,60.7,59.6,30.14,East,88,0.0,1.0,96,0.00,,---,0.00,VWS V14.01,2013-01-06 09:49:00,
2013-01-06 04:50:00,60.7,59.6,30.14,East,88,0.0,1.0,96,0.00,,---,0.00,VWS V14.01,2013-01-06 09:50:00,
2013-01-06 04:51:00,60.7,59.6,30.14,East,88,0.0,0.0,96,0.00,,---,0.00,VWS V14.01,2013-01-06 09:51:00,
2013-01-06 04:54:00,60.6,59.5,30.14,East,88,0.0,0.0,96,0.00,,---,0.00,VWS V14.01,2013-01-06 09:54:00,
2013-01-06 04:55:00,60.6,59.5,30.14,East,88,0.0,0.0,96,0.00,,---,0.00,VWS V14.01,2013-01-06 09:55:00,
2013-01-06 04:56:00,60.6,59.5,30.14,East,88,0.0,0.0,96,0.00,,---,0.00,VWS V14.01,2013-01-06 09:56:00,
2013-01-06 04:58:00,60.6,59.5,30.14,East,88,0.0,0.0,96,0.00,,---,0.00,VWS V14.01,2013-01-06 09:58:00,
2013-01-06 05:00:00,60.5,59.4,30.14,East,88,1.0,1.0,96,0.00,,---,0.00,VWS V14.01,2013-01-06 10:00:00,
2013-01-06 05:01:00,60.5,59.4,30.14,East,88,0.0,1.0,96,0.00,,---,0.00,VWS V14.01,2013-01-06 10:01:00,
2013-01-06 05:04:00,60.5,59.4,30.14,East,88,0.0,0.0,96,0.00,,---,0.00,VWS V14.01,2013-01-06 10:04:00,
2013-01-06 05:07:00,60.5,59.4,30.14,East,88,0.0,1.0,96,0.00,,---,0.00,VWS V14.01,2013-01-06 10:07:00,
2013-01-06 05:08:00,60.5,59.4,30.14,East,88,1.0,1.0,96,0.00,,---,0.00,VWS V14.01,2013-01-06 10:08:00,
2013-01-06 05:09:00,60.5,59.4,30.14,East,88,0.0,1.0,96,0.00,,---,0.00,VWS V14.01,2013-01-06 10:09:00,
2013-01-06 05:10:00,60.5,59.4,30.13,East,88,1.0,1.0,96,0.00,,---,0.00,VWS V14.01,2013-01-06 10:10:00,
2013-01-06 05:13:00,60.5,59.4,30.14,East,88,0.0,1.0,96,0.00,,---,0.00,VWS V14.01,2013-01-06 10:13:00,
2013-01-06 05:15:00,60.5,59.4,30.13,East,88,1.0,2.0,96,0.00,,---,0.00,VWS V14.01,2013-01-06 10:15:00,
2013-01-06 05:16:00,60.5,59.4,30.13,East,88,1.0,2.0,96,0.00,,---,0.00,VWS V14.01,2013-01-06 10:16:00,
2013-01-06 05:19:00,60.5,59.4,30.13,East,88,0.0,1.0,96,0.00,,---,0.00,VWS V14.01,2013-01-06 10:19:00,
2013-01-06 05:20:00,60.6,59.5,30.13,East,88,1.0,2.0,96,0.00,,---,0.00,VWS V14.01,2013-01-06 10:20:00,
2013-01-06 05:21:00,60.6,59.8,30.13,East,88,1.0,2.0,97,0.00,,---,0.00,VWS V14.01,2013-01-06 10:21:00,
2013-01-06 05:23:00,60.6,59.8,30.13,East,88,1.0,2.0,97,0.00,,---,0.00,VWS V14.01,2013-01-06 10:23:00,
2013-01-06 05:24:00,60.6,59.8,30.13,East,88,0.0,2.0,97,0.00,,---,0.00,VWS V14.01,2013-01-06 10:24:00,
2013-01-06 05:26:00,60.6,59.8,30.13,East,88,1.0,1.0,97,0.00,,---,0.00,VWS V14.01,2013-01-06 10:26:00,
2013-01-06 05:27:00,60.6,59.8,30.13,East,88,2.0,2.0,97,0.00,,---,0.00,VWS V14.01,2013-01-06 10:27:00,
2013-01-06 05:29:00,60.6,59.8,30.13,East,88,1.0,2.0,97,0.00,,---,0.00,VWS V14.01,2013-01-06 10:29:00,
2013-01-06 05:30:00,60.6,59.8,30.13,East,88,2.0,2.0,97,0.00,,---,0.00,VWS V14.01,2013-01-06 10:30:00,
2013-01-06 05:32:00,60.6,59.8,30.13,East,88,2.0,2.0,97,0.00,,---,0.00,VWS V14.01,2013-01-06 10:32:00,
2013-01-06 05:35:00,60.6,59.8,30.12,East,99,2.0,3.0,97,0.00,,---,0.00,VWS V14.01,2013-01-06 10:35:00,
2013-01-06 05:36:00,60.7,59.8,30.12,East,99,1.0,3.0,97,0.00,,---,0.00,VWS V14.01,2013-01-06 10:36:00,
2013-01-06 05:38:00,60.6,59.8,30.12,ESE,107,2.0,3.0,97,0.00,,---,0.00,VWS V14.01,2013-01-06 10:38:00,
2013-01-06 05:41:00,60.7,59.8,30.12,East,100,1.0,2.0,97,0.00,,---,0.00,VWS V14.01,2013-01-06 10:41:00,
2013-01-06 05:42:00,60.7,59.8,30.12,East,100,1.0,2.0,97,0.00,,---,0.00,VWS V14.01,2013-01-06 10:42:00,
2013-01-06 05:43:00,60.7,59.8,30.12,East,92,2.0,2.0,97,0.00,,---,0.00,VWS V14.01,2013-01-06 10:43:00,
2013-01-06 05:47:00,60.7,59.6,30.13,East,92,1.0,2.0,96,0.00,,---,0.00,VWS V14.01,2013-01-06 10:47:00,
2013-01-06 05:48:00,60.7,59.6,30.12,East,92,2.0,2.0,96,0.00,,---,0.00,VWS V14.01,2013-01-06 10:48:00,
2013-01-06 05:49:00,60.7,59.6,30.13,East,92,1.0,2.0,96,0.00,,---,0.00,VWS V14.01,2013-01-06 10:49:00,
2013-01-06 05:52:00,60.7,59.6,30.13,ENE,71,1.0,2.0,96,0.00,,---,0.00,VWS V14.01,2013-01-06 10:52:00,
2013-01-06 05:53:00,60.7,59.6,30.12,ENE,71,0.0,2.0,96,0.00,,---,0.00,VWS V14.01,2013-01-06 10:53:00,
2013-01-06 05:54:00,60.7,59.6,30.12,ENE,71,0.0,2.0,96,0.00,,---,0.00,VWS V14.01,2013-01-06 10:54:00,
2013-01-06 05:56:00,60.7,59.6,30.13,ESE,109,1.0,2.0,96,0.00,,---,0.00,VWS V14.01,2013-01-06 10:56:00,
2013-01-06 05:58:00,60.7,59.6,30.13,North,5,0.0,3.0,96,0.00,,---,0.00,VWS V14.01,2013-01-06 10:58:00,
2013-01-06 05:59:00,60.7,59.6,30.13,North,11,0.0,3.0,96,0.00,,---,0.00,VWS V14.01,2013-01-06 10:59:00,
2013-01-06 06:00:00,60.7,59.6,30.13,North,11,0.0,3.0,96,0.00,,---,0.00,VWS V14.01,2013-01-06 11:00:00,
2013-01-06 06:02:00,60.7,59.6,30.13,North,11,1.0,2.0,96,0.00,,---,0.00,VWS V14.01,2013-01-06 11:02:00,
2013-01-06 06:04:00,60.7,59.6,30.13,North,11,0.0,2.0,96,0.00,,---,0.00,VWS V14.01,2013-01-06 11:04:00,
2013-01-06 06:06:00,60.7,59.6,30.13,North,11,0.0,0.0,96,0.00,,---,0.00,VWS V14.01,2013-01-06 11:06:00,
2013-01-06 06:09:00,60.6,59.5,30.13,North,11,0.0,1.0,96,0.00,,---,0.00,VWS V14.01,2013-01-06 11:09:00,
2013-01-06 06:10:00,60.7,59.6,30.13,North,11,0.0,1.0,96,0.00,,---,0.00,VWS V14.01,2013-01-06 11:10:00,
2013-01-06 06:12:00,60.6,59.5,30.13,North,11,0.0,0.0,96,0.00,,---,0.00,VWS V14.01,2013-01-06 11:12:00,
2013-01-06 06:15:00,60.6,59.8,30.14,NNE,27,1.0,1.0,97,0.00,,---,0.00,VWS V14.01,2013-01-06 11:15:00,
2013-01-06 06:16:00,60.6,59.8,30.13,NE,37,0.0,1.0,97,0.00,,---,0.00,VWS V14.01,2013-01-06 11:16:00,
2013-01-06 06:19:00,60.5,59.7,30.14,NE,49,1.0,2.0,97,0.00,,---,0.00,VWS V14.01,2013-01-06 11:19:00,
2013-01-06 06:20:00,60.5,59.7,30.14,NE,49,0.0,2.0,97,0.00,,---,0.00,VWS V14.01,2013-01-06 11:20:00,
2013-01-06 06:21:00,60.5,59.4,30.14,NE,49,0.0,2.0,96,0.00,,---,0.00,VWS V14.01,2013-01-06 11:21:00,
2013-01-06 06:22:00,60.5,59.4,30.14,NE,49,0.0,0.0,96,0.00,,---,0.00,VWS V14.01,2013-01-06 11:22:00,
2013-01-06 06:24:00,60.4,59.3,30.14,NE,49,0.0,0.0,96,0.00,,---,0.00,VWS V14.01,2013-01-06 11:24:00,
2013-01-06 06:25:00,60.4,59.3,30.14,NE,49,0.0,0.0,96,0.00,,---,0.00,VWS V14.01,2013-01-06 11:25:00,
2013-01-06 06:26:00,60.4,59.3,30.14,NE,49,0.0,0.0,96,0.00,,---,0.00,VWS V14.01,2013-01-06 11:26:00,
2013-01-06 06:28:00,60.3,59.2,30.14,NE,49,0.0,0.0,96,0.00,,---,0.00,VWS V14.01,2013-01-06 11:28:00,
2013-01-06 06:30:00,60.3,59.2,30.14,NE,49,0.0,0.0,96,0.00,,---,0.00,VWS V14.01,2013-01-06 11:30:00,
2013-01-06 06:31:00,60.3,59.2,30.14,NE,49,0.0,0.0,96,0.00,,---,0.00,VWS V14.01,2013-01-06 11:31:00,
2013-01-06 06:32:00,60.3,59.2,30.14,NE,55,1.0,2.0,96,0.00,,---,0.00,VWS V14.01,2013-01-06 11:32:00,
2013-01-06 06:34:00,60.3,59.5,30.14,East,86,2.0,2.0,97,0.00,,---,0.00,VWS V14.01,2013-01-06 11:34:00,
2013-01-06 06:35:00,60.3,59.5,30.14,East,87,0.0,2.0,97,0.00,,---,0.00,VWS V14.01,2013-01-06 11:35:00,
2013-01-06 06:36:00,60.3,59.5,30.14,East,87,0.0,1.0,97,0.00,,---,0.00,VWS V14.01,2013-01-06 11:36:00,
2013-01-06 06:37:00,60.3,59.5,30.14,East,87,0.0,1.0,97,0.00,,---,0.00,VWS V14.01,2013-01-06 11:37:00,
2013-01-06 06:39:00,60.4,59.5,30.14,East,89,0.0,2.0,97,0.00,,---,0.00,VWS V14.01,2013-01-06 11:39:00,
2013-01-06 06:40:00,60.4,59.5,30.14,East,89,0.0,2.0,97,0.00,,---,0.00,VWS V14.01,2013-01-06 11:40:00,
2013-01-06 06:41:00,60.4,59.5,30.14,East,89,1.0,1.0,97,0.00,,---,0.00,VWS V14.01,2013-01-06 11:41:00,
2013-01-06 06:42:00,60.4,59.5,30.14,East,89,2.0,2.0,97,0.00,,---,0.00,VWS V14.01,2013-01-06 11:42:00,
2013-01-06 06:46:00,60.5,59.7,30.14,East,89,1.0,2.0,97,0.00,,---,0.00,VWS V14.01,2013-01-06 11:46:00,
2013-01-06 06:47:00,60.5,59.7,30.14,ENE,67,2.0,3.0,97,0.00,,---,0.00,VWS V14.01,2013-01-06 11:47:00,
2013-01-06 06:52:00,60.6,59.8,30.13,East,81,0.0,2.0,97,0.00,,---,0.00,VWS V14.01,2013-01-06 11:52:00,
2013-01-06 06:53:00,60.7,59.8,30.13,East,81,1.0,2.0,97,0.00,,---,0.00,VWS V14.01,2013-01-06 11:53:00,
2013-01-06 06:58:00,60.9,60.3,30.14,East,88,3.0,3.0,98,0.00,,---,0.00,VWS V14.01,2013-01-06 11:58:00,
2013-01-06 06:59:00,60.9,60.3,30.14,ESE,119,3.0,3.0,98,0.00,,---,0.00,VWS V14.01,2013-01-06 11:59:00,
2013-01-06 07:03:00,61.1,60.5,30.14,ENE,57,1.0,3.0,98,0.00,,---,0.00,VWS V14.01,2013-01-06 12:03:00,
2013-01-06 07:04:00,61.1,60.5,30.14,East,79,2.0,3.0,98,0.00,,---,0.00,VWS V14.01,2013-01-06 12:04:00,
2013-01-06 07:08:00,61.3,60.7,30.14,ENE,61,2.0,3.0,98,0.00,,---,0.00,VWS V14.01,2013-01-06 12:08:00,
2013-01-06 07:09:00,61.3,60.7,30.14,ENE,61,0.0,3.0,98,0.00,,---,0.00,VWS V14.01,2013-01-06 12:09:00,
2013-01-06 07:13:00,61.4,60.8,30.14,East,79,1.0,3.0,98,0.00,,---,0.00,VWS V14.01,2013-01-06 12:13:00,
2013-01-06 07:14:00,61.4,60.8,30.14,East,79,0.0,3.0,98,0.00,,---,0.00,VWS V14.01,2013-01-06 12:14:00,
2013-01-06 07:19:00,61.4,60.8,30.15,NE,51,0.0,2.0,98,0.00,,---,0.00,VWS V14.01,2013-01-06 12:19:00,
2013-01-06 07:21:00,61.4,60.8,30.15,NE,51,0.0,2.0,98,0.00,,---,0.00,VWS V14.01,2013-01-06 12:21:00,
2013-01-06 07:24:00,61.4,60.8,30.15,NE,51,0.0,2.0,98,0.00,,---,0.00,VWS V14.01,2013-01-06 12:24:00,
2013-01-06 07:26:00,61.5,60.9,30.15,East,88,1.0,1.0,98,0.00,,---,0.00,VWS V14.01,2013-01-06 12:26:00,
2013-01-06 07:27:00,61.5,60.9,30.15,East,88,0.0,1.0,98,0.00,,---,0.00,VWS V14.01,2013-01-06 12:27:00,
2013-01-06 07:30:00,61.5,60.9,30.15,East,88,2.0,2.0,98,0.00,,---,0.00,VWS V14.01,2013-01-06 12:30:00,
2013-01-06 07:31:00,61.5,60.9,30.15,ENE,62,3.0,3.0,98,0.00,,---,0.00,VWS V14.01,2013-01-06 12:31:00,
2013-01-06 07:32:00,61.5,60.9,30.15,East,92,0.0,3.0,98,0.00,,---,0.00,VWS V14.01,2013-01-06 12:32:00,
2013-01-06 07:35:00,61.6,61.0,30.15,ENE,78,1.0,3.0,98,0.00,,---,0.00,VWS V14.01,2013-01-06 12:35:00,
2013-01-06 07:36:00,61.6,61.0,30.15,ENE,78,1.0,1.0,98,0.00,,---,0.00,VWS V14.01,2013-01-06 12:36:00,
2013-01-06 07:38:00,61.6,61.0,30.14,ENE,78,1.0,2.0,98,0.00,,---,0.00,VWS V14.01,2013-01-06 12:38:00,
2013-01-06 07:40:00,61.6,61.0,30.14,NE,53,1.0,3.0,98,0.00,,---,0.00,VWS V14.01,2013-01-06 12:40:00,
2013-01-06 07:41:00,61.6,61.0,30.14,NE,53,1.0,3.0,98,0.00,,---,0.00,VWS V14.01,2013-01-06 12:41:00,
2013-01-06 07:42:00,61.6,61.0,30.14,NE,53,1.0,2.0,98,0.00,,---,0.00,VWS V14.01,2013-01-06 12:42:00,
2013-01-06 07:43:00,61.7,61.1,30.14,NE,53,0.0,2.0,98,0.00,,---,0.00,VWS V14.01,2013-01-06 12:43:00,
2013-01-06 07:45:00,61.7,61.1,30.15,NE,53,0.0,2.0,98,0.00,,---,0.00,VWS V14.01,2013-01-06 12:45:00,
2013-01-06 07:46:00,61.7,61.1,30.15,NE,53,1.0,1.0,98,0.00,,---,0.00,VWS V14.01,2013-01-06 12:46:00,
2013-01-06 07:49:00,61.7,61.1,30.15,NE,53,1.0,2.0,98,0.00,,---,0.00,VWS V14.01,2013-01-06 12:49:00,
2013-01-06 07:50:00,61.8,61.2,30.15,NE,53,0.0,2.0,98,0.00,,---,0.00,VWS V14.01,2013-01-06 12:50:00,
2013-01-06 07:51:00,61.8,61.2,30.15,NE,53,1.0,2.0,98,0.00,,---,0.00,VWS V14.01,2013-01-06 12:51:00,
2013-01-06 07:54:00,61.8,61.2,30.15,NE,53,0.0,1.0,98,0.00,,---,0.00,VWS V14.01,2013-01-06 12:54:00,
2013-01-06 07:56:00,61.8,61.2,30.15,ENE,74,1.0,2.0,98,0.00,,---,0.00,VWS V14.01,2013-01-06 12:56:00,
2013-01-06 07:57:00,61.9,61.3,30.15,ENE,74,1.0,3.0,98,0.00,,---,0.00,VWS V14.01,2013-01-06 12:57:00,
2013-01-06 07:59:00,61.9,61.3,30.15,ENE,77,1.0,3.0,98,0.00,,---,0.00,VWS V14.01,2013-01-06 12:59:00,
2013-01-06 08:01:00,61.9,61.3,30.15,ENE,77,1.0,1.0,98,0.00,,---,0.00,VWS V14.01,2013-01-06 13:01:00,
2013-01-06 08:04:00,62.0,61.4,30.15,ENE,72,3.0,5.0,98,0.00,,---,0.00,VWS V14.01,2013-01-06 13:04:00,
2013-01-06 08:06:00,62.1,61.5,30.15,ENE,76,2.0,2.0,98,0.00,,---,0.00,VWS V14.01,2013-01-06 13:06:00,
2013-01-06 08:07:00,62.1,61.5,30.15,ENE,76,0.0,2.0,98,0.00,,---,0.00,VWS V14.01,2013-01-06 13:07:00,
2013-01-06 08:08:00,62.1,61.5,30.15,ENE,76,0.0,2.0,98,0.00,,---,0.00,VWS V14.01,2013-01-06 13:08:00,
2013-01-06 08:10:00,62.1,61.5,30.15,ENE,76,1.0,2.0,98,0.00,,---,0.00,VWS V14.01,2013-01-06 13:10:00,
2013-01-06 08:12:00,62.2,61.6,30.16,ENE,76,2.0,2.0,98,0.00,,---,0.00,VWS V14.01,2013-01-06 13:12:00,
2013-01-06 08:13:00,62.2,61.6,30.15,ENE,76,1.0,2.0,98,0.00,,---,0.00,VWS V14.01,2013-01-06 13:13:00,
2013-01-06 08:16:00,62.3,61.7,30.16,East,99,1.0,3.0,98,0.00,,---,0.00,VWS V14.01,2013-01-06 13:16:00,
2013-01-06 08:18:00,62.3,61.7,30.16,East,99,2.0,2.0,98,0.00,,---,0.00,VWS V14.01,2013-01-06 13:18:00,
2013-01-06 08:19:00,62.3,61.7,30.16,East,98,1.0,2.0,98,0.00,,---,0.00,VWS V14.01,2013-01-06 13:19:00,
2013-01-06 08:21:00,62.4,61.8,30.16,East,98,1.0,2.0,98,0.00,,---,0.00,VWS V14.01,2013-01-06 13:21:00,
2013-01-06 08:23:00,62.5,61.9,30.15,East,98,0.0,2.0,98,0.00,,---,0.00,VWS V14.01,2013-01-06 13:23:00,
2013-01-06 08:24:00,62.5,61.9,30.15,East,98,0.0,2.0,98,0.00,,---,0.00,VWS V14.01,2013-01-06 13:24:00,
2013-01-06 08:27:00,62.6,62.0,30.15,ESE,119,0.0,1.0,98,0.00,,---,0.00,VWS V14.01,2013-01-06 13:27:00,
2013-01-06 08:28:00,62.6,62.0,30.15,ESE,116,2.0,2.0,98,0.00,,---,0.00,VWS V14.01,2013-01-06 13:28:00,
2013-01-06 08:29:00,62.6,62.0,30.15,ESE,116,1.0,2.0,98,0.00,,---,0.00,VWS V14.01,2013-01-06 13:29:00,
2013-01-06 08:30:00,62.6,62.0,30.15,East,90,2.0,3.0,98,0.00,,---,0.00,VWS V14.01,2013-01-06 13:30:00,
2013-01-06 08:32:00,62.7,62.1,30.16,East,90,0.0,1.0,98,0.00,,---,0.00,VWS V14.01,2013-01-06 13:32:00,
2013-01-06 08:34:00,62.7,62.1,30.16,East,81,0.0,1.0,98,0.00,,---,0.00,VWS V14.01,2013-01-06 13:34:00,
2013-01-06 08:35:00,62.8,62.2,30.16,East,81,0.0,1.0,98,0.00,,---,0.00,VWS V14.01,2013-01-06 13:35:00,
2013-01-06 08:37:00,62.8,62.2,30.16,East,81,1.0,1.0,98,0.00,,---,0.00,VWS V14.01,2013-01-06 13:37:00,
2013-01-06 08:40:00,62.9,62.6,30.16,East,82,1.0,2.0,99,0.00,,---,0.00,VWS V14.01,2013-01-06 13:40:00,
2013-01-06 08:41:00,62.9,62.6,30.16,East,82,0.0,2.0,99,0.00,,---,0.00,VWS V14.01,2013-01-06 13:41:00,
2013-01-06 08:42:00,63.0,62.7,30.16,East,82,0.0,1.0,99,0.00,,---,0.00,VWS V14.01,2013-01-06 13:42:00,
2013-01-06 08:45:00,63.0,62.7,30.16,East,82,1.0,1.0,99,0.00,,---,0.00,VWS V14.01,2013-01-06 13:45:00,
2013-01-06 08:47:00,63.1,62.8,30.16,East,82,0.0,1.0,99,0.00,,---,0.00,VWS V14.01,2013-01-06 13:47:00,
2013-01-06 08:48:00,63.1,62.8,30.16,East,82,0.0,1.0,99,0.00,,---,0.00,VWS V14.01,2013-01-06 13:48:00,
2013-01-06 08:51:00,63.1,62.5,30.16,East,82,1.0,1.0,98,0.00,,---,0.00,VWS V14.01,2013-01-06 13:51:00,
2013-01-06 08:52:00,63.2,62.6,30.16,East,82,0.0,1.0,98,0.00,,---,0.00,VWS V14.01,2013-01-06 13:52:00,
2013-01-06 08:53:00,63.2,62.6,30.16,East,82,1.0,1.0,98,0.00,,---,0.00,VWS V14.01,2013-01-06 13:53:00,
2013-01-06 08:55:00,63.2,62.6,30.16,ENE,67,2.0,4.0,98,0.00,,---,0.00,VWS V14.01,2013-01-06 13:55:00,
2013-01-06 08:57:00,63.2,62.6,30.16,ENE,67,2.0,2.0,98,0.00,,---,0.00,VWS V14.01,2013-01-06 13:57:00,
2013-01-06 08:59:00,63.3,62.7,30.16,ENE,65,3.0,3.0,98,0.00,,---,0.00,VWS V14.01,2013-01-06 13:59:00,
2013-01-06 09:01:00,63.3,62.7,30.16,NE,45,2.0,3.0,98,0.00,,---,0.00,VWS V14.01,2013-01-06 14:01:00,
2013-01-06 09:02:00,63.3,62.7,30.16,NE,45,1.0,2.0,98,0.00,,---,0.00,VWS V14.01,2013-01-06 14:02:00,
2013-01-06 09:04:00,63.4,62.8,30.16,NE,51,2.0,2.0,98,0.00,,---,0.00,VWS V14.01,2013-01-06 14:04:00,
2013-01-06 09:06:00,63.4,62.8,30.16,NE,51,2.0,3.0,98,0.00,,---,0.00,VWS V14.01,2013-01-06 14:06:00,
2013-01-06 09:07:00,63.4,62.8,30.16,NE,51,1.0,2.0,98,0.00,,---,0.00,VWS V14.01,2013-01-06 14:07:00,
2013-01-06 09:09:00,63.4,62.8,30.16,ENE,59,2.0,3.0,98,0.00,,---,0.00,VWS V14.01,2013-01-06 14:09:00,
2013-01-06 09:11:00,63.4,62.8,30.16,ENE,72,0.0,0.0,98,0.00,,---,0.00,VWS V14.01,2013-01-06 14:11:00,
2013-01-06 09:13:00,63.4,62.8,30.16,ENE,72,1.0,2.0,98,0.00,,---,0.00,VWS V14.01,2013-01-06 14:13:00,
2013-01-06 09:14:00,63.5,63.2,30.16,ENE,72,0.0,2.0,99,0.00,,---,0.00,VWS V14.01,2013-01-06 14:14:00,
2013-01-06 09:15:00,63.5,63.2,30.16,ENE,68,3.0,3.0,99,0.00,,---,0.00,VWS V14.01,2013-01-06 14:15:00,
2013-01-06 09:16:00,63.5,63.2,30.16,ENE,68,1.0,2.0,99,0.00,,---,0.00,VWS V14.01,2013-01-06 14:16:00,
2013-01-06 09:18:00,63.6,63.3,30.16,East,89,1.0,2.0,99,0.00,,---,0.00,VWS V14.01,2013-01-06 14:18:00,
2013-01-06 09:20:00,63.6,63.3,30.17,East,89,0.0,2.0,99,0.00,,---,0.00,VWS V14.01,2013-01-06 14:20:00,
2013-01-06 09:21:00,63.6,63.3,30.17,East,86,2.0,2.0,99,0.00,,---,0.00,VWS V14.01,2013-01-06 14:21:00,
2013-01-06 09:23:00,63.6,63.3,30.17,ENE,66,1.0,3.0,99,0.00,,---,0.00,VWS V14.01,2013-01-06 14:23:00,
2013-01-06 09:26:00,63.7,63.4,30.17,ENE,66,0.0,2.0,99,0.00,,---,0.00,VWS V14.01,2013-01-06 14:26:00,
2013-01-06 09:27:00,63.7,63.4,30.17,ENE,66,0.0,2.0,99,0.00,,---,0.00,VWS V14.01,2013-01-06 14:27:00,
2013-01-06 09:28:00,63.8,63.5,30.17,ENE,66,1.0,2.0,99,0.00,,---,0.00,VWS V14.01,2013-01-06 14:28:00,
2013-01-06 09:32:00,63.9,63.6,30.17,ENE,66,0.0,1.0,99,0.00,,---,0.00,VWS V14.01,2013-01-06 14:32:00,
2013-01-06 09:33:00,64.0,63.7,30.17,ENE,66,1.0,1.0,99,0.00,,---,0.00,VWS V14.01,2013-01-06 14:33:00,
2013-01-06 09:34:00,64.0,63.7,30.17,ENE,66,0.0,1.0,99,0.00,,---,0.00,VWS V14.01,2013-01-06 14:34:00,
2013-01-06 09:38:00,64.1,63.8,30.17,ENE,66,1.0,2.0,99,0.00,,---,0.00,VWS V14.01,2013-01-06 14:38:00,
2013-01-06 09:39:00,64.1,63.8,30.17,ENE,66,1.0,2.0,99,0.00,,---,0.00,VWS V14.01,2013-01-06 14:39:00,
2013-01-06 09:40:00,64.1,63.8,30.17,ENE,66,2.0,2.0,99,0.00,,---,0.00,VWS V14.01,2013-01-06 14:40:00,
2013-01-06 09:43:00,64.1,63.8,30.17,ENE,66,0.0,2.0,99,0.00,,---,0.00,VWS V14.01,2013-01-06 14:43:00,
2013-01-06 09:44:00,64.1,63.8,30.17,ENE,67,1.0,2.0,99,0.00,,---,0.00,VWS V14.01,2013-01-06 14:44:00,
2013-01-06 09:45:00,64.2,63.9,30.17,ENE,67,1.0,2.0,99,0.00,,---,0.00,VWS V14.01,2013-01-06 14:45:00,
2013-01-06 09:49:00,64.3,64.0,30.17,ENE,67,1.0,2.0,99,0.00,,---,0.00,VWS V14.01,2013-01-06 14:49:00,
2013-01-06 09:50:00,64.4,64.1,30.17,ENE,68,0.0,2.0,99,0.00,,---,0.00,VWS V14.01,2013-01-06 14:50:00,
2013-01-06 09:51:00,64.4,64.1,30.17,ENE,68,0.0,2.0,99,0.00,,---,0.00,VWS V14.01,2013-01-06 14:51:00,
2013-01-06 09:54:00,64.5,64.2,30.17,NE,54,1.0,2.0,99,0.00,,---,0.00,VWS V14.01,2013-01-06 14:54:00,
2013-01-06 09:55:00,64.5,64.2,30.17,NE,53,0.0,2.0,99,0.00,,---,0.00,VWS V14.01,2013-01-06 14:55:00,
2013-01-06 09:56:00,64.6,64.3,30.17,NE,53,0.0,0.0,99,0.00,,---,0.00,VWS V14.01,2013-01-06 14:56:00,
2013-01-06 10:00:00,64.7,64.4,30.18,ENE,70,0.0,2.0,99,0.00,,---,0.00,VWS V14.01,2013-01-06 15:00:00,
2013-01-06 10:01:00,64.7,64.4,30.18,ENE,70,0.0,0.0,99,0.00,,---,0.00,VWS V14.01,2013-01-06 15:01:00,
2013-01-06 10:02:00,64.7,64.1,30.18,ENE,70,1.0,1.0,98,0.00,,---,0.00,VWS V14.01,2013-01-06 15:02:00,
2013-01-06 10:05:00,64.8,64.5,30.18,ENE,73,2.0,2.0,99,0.00,,---,0.00,VWS V14.01,2013-01-06 15:05:00,
2013-01-06 10:06:00,64.8,64.5,30.18,ENE,73,1.0,2.0,99,0.00,,---,0.00,VWS V14.01,2013-01-06 15:06:00,
2013-01-06 10:08:00,64.8,64.2,30.18,ENE,78,1.0,2.0,98,0.00,,---,0.00,VWS V14.01,2013-01-06 15:08:00,
2013-01-06 10:11:00,64.9,64.3,30.18,ENE,78,1.0,2.0,98,0.00,,---,0.00,VWS V14.01,2013-01-06 15:11:00,
2013-01-06 10:12:00,64.9,64.3,30.18,East,92,1.0,1.0,98,0.00,,---,0.00,VWS V14.01,2013-01-06 15:12:00,
2013-01-06 10:14:00,65.0,64.4,30.18,SSE,151,0.0,2.0,98,0.00,,---,0.00,VWS V14.01,2013-01-06 15:14:00,
2013-01-06 10:16:00,65.1,64.5,30.18,SE,144,0.0,1.0,98,0.00,,---,0.00,VWS V14.01,2013-01-06 15:16:00,
2013-01-06 10:17:00,65.2,64.6,30.18,SE,144,1.0,1.0,98,0.00,,---,0.00,VWS V14.01,2013-01-06 15:17:00,
2013-01-06 10:18:00,65.2,64.6,30.18,SE,144,1.0,1.0,98,0.00,,---,0.00,VWS V14.01,2013-01-06 15:18:00,
2013-01-06 10:21:00,65.3,64.7,30.18,SE,144,0.0,1.0,98,0.00,,---,0.00,VWS V14.01,2013-01-06 15:21:00,
2013-01-06 10:22:00,65.3,64.7,30.18,SE,144,1.0,1.0,98,0.00,,---,0.00,VWS V14.01,2013-01-06 15:22:00,
2013-01-06 10:23:00,65.3,64.7,30.18,SE,144,1.0,1.0,98,0.00,,---,0.00,VWS V14.01,2013-01-06 15:23:00,
2013-01-06 10:24:00,65.4,64.8,30.18,ESE,120,1.0,3.0,98,0.00,,---,0.00,VWS V14.01,2013-01-06 15:24:00,
2013-01-06 10:28:00,65.4,64.8,30.18,ESE,119,1.0,2.0,98,0.00,,---,0.00,VWS V14.01,2013-01-06 15:28:00,
2013-01-06 10:29:00,65.5,64.9,30.18,ESE,120,2.0,2.0,98,0.00,,---,0.00,VWS V14.01,2013-01-06 15:29:00,
2013-01-06 10:30:00,65.5,64.9,30.18,East,101,2.0,2.0,98,0.00,,---,0.00,VWS V14.01,2013-01-06 15:30:00,
2013-01-06 10:33:00,65.6,64.7,30.18,East,94,2.0,2.0,97,0.00,,---,0.00,VWS V14.01,2013-01-06 15:33:00,
2013-01-06 10:34:00,65.6,64.7,30.18,East,94,0.0,2.0,97,0.00,,---,0.00,VWS V14.01,2013-01-06 15:34:00,
2013-01-06 10:36:00,65.6,64.7,30.18,NE,56,1.0,3.0,97,0.00,,---,0.00,VWS V14.01,2013-01-06 15:36:00,
2013-01-06 10:39:00,65.8,64.9,30.18,NE,56,2.0,2.0,97,0.00,,---,0.00,VWS V14.01,2013-01-06 15:39:00,
2013-01-06 10:40:00,65.8,64.9,30.18,NE,56,0.0,2.0,97,0.00,,---,0.00,VWS V14.01,2013-01-06 15:40:00,
2013-01-06 10:42:00,65.9,65.0,30.18,East,85,1.0,2.0,97,0.00,,---,0.00,VWS V14.01,2013-01-06 15:42:00,
2013-01-06 10:45:00,66.1,65.2,30.17,East,85,1.0,2.0,97,0.00,,---,0.00,VWS V14.01,2013-01-06 15:45:00,
2013-01-06 10:46:00,66.2,65.0,30.17,NNE,28,2.0,2.0,96,0.00,,---,0.00,VWS V14.01,2013-01-06 15:46:00,
2013-01-06 10:47:00,66.2,65.0,30.17,ESE,107,2.0,3.0,96,0.00,,---,0.00,VWS V14.01,2013-01-06 15:47:00,
2013-01-06 10:50:00,66.2,65.0,30.17,East,101,1.0,3.0,96,0.00,,---,0.00,VWS V14.01,2013-01-06 15:50:00,
2013-01-06 10:51:00,66.2,65.0,30.17,East,101,1.0,2.0,96,0.00,,---,0.00,VWS V14.01,2013-01-06 15:51:00,
2013-01-06 10:52:00,66.3,65.1,30.17,East,96,2.0,2.0,96,0.00,,---,0.00,VWS V14.01,2013-01-06 15:52:00,
2013-01-06 10:54:00,66.4,65.2,30.17,East,96,0.0,2.0,96,0.00,,---,0.00,VWS V14.01,2013-01-06 15:54:00,
2013-01-06 10:57:00,66.5,65.3,30.17,East,84,2.0,3.0,96,0.00,,---,0.00,VWS V14.01,2013-01-06 15:57:00,
2013-01-06 10:58:00,66.5,65.3,30.17,NE,37,2.0,3.0,96,0.00,,---,0.00,VWS V14.01,2013-01-06 15:58:00,
2013-01-06 11:00:00,66.6,65.1,30.16,ENE,74,1.0,3.0,95,0.00,,---,0.00,VWS V14.01,2013-01-06 16:00:00,
2013-01-06 11:03:00,66.7,65.2,30.17,East,93,2.0,3.0,95,0.00,,---,0.00,VWS V14.01,2013-01-06 16:03:00,
2013-01-06 11:04:00,66.7,65.2,30.16,East,92,2.0,3.0,95,0.00,,---,0.00,VWS V14.01,2013-01-06 16:04:00,
2013-01-06 11:05:00,66.7,65.2,30.17,East,88,1.0,3.0,95,0.00,,---,0.00,VWS V14.01,2013-01-06 16:05:00,
2013-01-06 11:07:00,66.9,65.4,30.16,East,82,2.0,3.0,95,0.00,,---,0.00,VWS V14.01,2013-01-06 16:07:00,
2013-01-06 11:09:00,67.0,65.5,30.16,East,82,1.0,3.0,95,0.00,,---,0.00,VWS V14.01,2013-01-06 16:09:00,
2013-01-06 11:10:00,67.1,65.6,30.16,East,82,1.0,3.0,95,0.00,,---,0.00,VWS V14.01,2013-01-06 16:10:00,
2013-01-06 11:13:00,67.4,65.6,30.16,ENE,76,2.0,3.0,94,0.00,,---,0.00,VWS V14.01,2013-01-06 16:13:00,
2013-01-06 11:15:00,67.6,65.8,30.16,NE,52,2.0,3.0,94,0.00,,---,0.00,VWS V14.01,2013-01-06 16:15:00,
2013-01-06 11:16:00,67.7,65.9,30.16,NE,34,3.0,3.0,94,0.00,,---,0.00,VWS V14.01,2013-01-06 16:16:00,
2013-01-06 11:18:00,67.8,65.7,30.16,ENE,71,2.0,3.0,93,0.00,,---,0.00,VWS V14.01,2013-01-06 16:18:00,
2013-01-06 11:21:00,68.0,65.9,30.16,ENE,70,2.0,3.0,93,0.00,,---,0.00,VWS V14.01,2013-01-06 16:21:00,
2013-01-06 11:23:00,68.1,66.0,30.16,ENE,68,2.0,3.0,93,0.00,,---,0.00,VWS V14.01,2013-01-06 16:23:00,
2013-01-06 11:27:00,68.3,66.2,30.16,NE,53,3.0,3.0,93,0.00,,---,0.00,VWS V14.01,2013-01-06 16:27:00,
2013-01-06 11:30:00,68.5,66.1,30.15,North,360,1.0,3.0,92,0.00,,---,0.00,VWS V14.01,2013-01-06 16:30:00,
2013-01-06 11:32:00,68.6,66.2,30.15,NE,41,3.0,3.0,92,0.00,,---,0.00,VWS V14.01,2013-01-06 16:32:00,
2013-01-06 11:33:00,68.6,66.2,30.15,NE,41,1.0,3.0,92,0.00,,---,0.00,VWS V14.01,2013-01-06 16:33:00,
2013-01-06 11:34:00,68.7,66.3,30.15,NE,41,1.0,3.0,92,0.00,,---,0.00,VWS V14.01,2013-01-06 16:34:00,
2013-01-06 11:35:00,68.8,66.4,30.15,NE,41,1.0,3.0,92,0.00,,---,0.00,VWS V14.01,2013-01-06 16:35:00,
2013-01-06 11:37:00,68.9,66.5,30.15,NE,37,2.0,3.0,92,0.00,,---,0.00,VWS V14.01,2013-01-06 16:37:00,
2013-01-06 11:38:00,69.0,66.3,30.15,NE,37,1.0,3.0,91,0.00,,---,0.00,VWS V14.01,2013-01-06 16:38:00,
2013-01-06 11:39:00,69.1,66.4,30.15,NNE,14,1.0,3.0,91,0.00,,---,0.00,VWS V14.01,2013-01-06 16:39:00,
2013-01-06 11:42:00,69.5,66.8,30.15,NNE,32,2.0,3.0,91,0.00,,---,0.00,VWS V14.01,2013-01-06 16:42:00,
2013-01-06 11:43:00,69.5,66.8,30.14,NNE,32,1.0,3.0,91,0.00,,---,0.00,VWS V14.01,2013-01-06 16:43:00,
2013-01-06 11:46:00,69.8,67.1,30.14,NNE,32,2.0,3.0,91,0.00,,---,0.00,VWS V14.01,2013-01-06 16:46:00,
2013-01-06 11:47:00,69.9,66.8,30.14,NNE,32,2.0,3.0,90,0.00,,---,0.00,VWS V14.01,2013-01-06 16:47:00,
2013-01-06 11:48:00,70.0,66.9,30.14,NNE,32,2.0,3.0,90,0.00,,---,0.00,VWS V14.01,2013-01-06 16:48:00,
2013-01-06 11:49:00,70.1,67.0,30.14,NNE,32,2.0,3.0,90,0.00,,---,0.00,VWS V14.01,2013-01-06 16:49:00,
2013-01-06 11:53:00,70.5,67.1,30.14,NNW,337,1.0,3.0,89,0.00,,---,0.00,VWS V14.01,2013-01-06 16:53:00,
2013-01-06 11:55:00,70.7,67.3,30.14,NE,38,2.0,3.0,89,0.00,,---,0.00,VWS V14.01,2013-01-06 16:55:00,
2013-01-06 11:58:00,70.9,67.2,30.14,NE,38,1.0,3.0,88,0.00,,---,0.00,VWS V14.01,2013-01-06 16:58:00,
2013-01-06 12:00:00,71.0,67.3,30.14,NE,44,0.0,3.0,88,0.00,,---,0.00,VWS V14.01,2013-01-06 17:00:00,
2013-01-06 12:03:00,71.1,67.0,30.14,NE,42,2.0,2.0,87,0.00,,---,0.00,VWS V14.01,2013-01-06 17:03:00,
2013-01-06 12:04:00,71.0,67.3,30.14,North,9,1.0,2.0,88,0.00,,---,0.00,VWS V14.01,2013-01-06 17:04:00,
2013-01-06 12:06:00,71.1,67.4,30.13,NNE,12,2.0,2.0,88,0.00,,---,0.00,VWS V14.01,2013-01-06 17:06:00,
2013-01-06 12:07:00,71.1,67.0,30.13,NNE,29,2.0,2.0,87,0.00,,---,0.00,VWS V14.01,2013-01-06 17:07:00,
2013-01-06 12:09:00,71.1,67.4,30.13,NNE,29,1.0,2.0,88,0.00,,---,0.00,VWS V14.01,2013-01-06 17:09:00,
2013-01-06 12:10:00,71.1,67.0,30.13,ENE,67,1.0,2.0,87,0.00,,---,0.00,VWS V14.01,2013-01-06 17:10:00,
2013-01-06 12:11:00,71.2,67.1,30.13,ENE,67,1.0,2.0,87,0.00,,---,0.00,VWS V14.01,2013-01-06 17:11:00,
2013-01-06 12:12:00,71.2,67.5,30.13,ENE,67,1.0,1.0,88,0.00,,---,0.00,VWS V14.01,2013-01-06 17:12:00,
2013-01-06 12:14:00,71.4,67.7,30.13,ENE,67,2.0,2.0,88,0.00,,---,0.00,VWS V14.01,2013-01-06 17:14:00,
2013-01-06 12:15:00,71.5,67.8,30.13,ENE,67,1.0,2.0,88,0.00,,---,0.00,VWS V14.01,2013-01-06 17:15:00,
2013-01-06 12:17:00,71.8,67.7,30.13,North,360,0.0,3.0,87,0.00,,---,0.00,VWS V14.01,2013-01-06 17:17:00,
2013-01-06 12:19:00,72.2,68.1,30.13,North,360,1.0,3.0,87,0.00,,---,0.00,VWS V14.01,2013-01-06 17:19:00,
2013-01-06 12:21:00,72.4,68.0,30.13,NNE,12,3.0,3.0,86,0.00,,---,0.00,VWS V14.01,2013-01-06 17:21:00,
2013-01-06 12:22:00,72.5,68.1,30.13,NE,34,2.0,3.0,86,0.00,,---,0.00,VWS V14.01,2013-01-06 17:22:00,
2013-01-06 12:23:00,72.5,68.1,30.13,NE,34,2.0,3.0,86,0.00,,---,0.00,VWS V14.01,2013-01-06 17:23:00,
2013-01-06 12:25:00,72.5,67.7,30.13,NE,38,2.0,3.0,85,0.00,,---,0.00,VWS V14.01,2013-01-06 17:25:00,
2013-01-06 12:26:00,72.5,67.7,30.13,NE,38,3.0,3.0,85,0.00,,---,0.00,VWS V14.01,2013-01-06 17:26:00,
2013-01-06 12:28:00,72.4,67.6,30.13,ENE,67,2.0,3.0,85,0.00,,---,0.00,VWS V14.01,2013-01-06 17:28:00,
2013-01-06 12:32:00,72.3,67.5,30.12,East,83,2.0,2.0,85,0.00,,---,0.00,VWS V14.01,2013-01-06 17:32:00,
2013-01-06 12:34:00,72.3,67.5,30.12,NE,49,2.0,3.0,85,0.00,,---,0.00,VWS V14.01,2013-01-06 17:34:00,
2013-01-06 12:38:00,72.1,67.0,30.12,NE,39,1.0,3.0,84,0.00,,---,0.00,VWS V14.01,2013-01-06 17:38:00,
2013-01-06 12:39:00,72.1,67.0,30.12,NE,39,2.0,3.0,84,0.00,,---,0.00,VWS V14.01,2013-01-06 17:39:00,
2013-01-06 12:44:00,71.6,67.2,30.11,East,91,1.0,3.0,86,0.00,,---,0.00,VWS V14.01,2013-01-06 17:44:00,
2013-01-06 12:45:00,71.6,67.2,30.11,East,91,1.0,3.0,86,0.00,,---,0.00,VWS V14.01,2013-01-06 17:45:00,
2013-01-06 12:49:00,71.7,67.6,30.11,East,91,2.0,2.0,87,0.00,,---,0.00,VWS V14.01,2013-01-06 17:49:00,
2013-01-06 12:50:00,71.7,67.6,30.11,East,91,2.0,2.0,87,0.00,,---,0.00,VWS V14.01,2013-01-06 17:50:00,
2013-01-06 12:55:00,72.0,67.6,30.11,NE,53,2.0,3.0,86,0.00,,---,0.00,VWS V14.01,2013-01-06 17:55:00,
2013-01-06 12:56:00,72.1,67.7,30.11,NE,53,2.0,3.0,86,0.00,,---,0.00,VWS V14.01,2013-01-06 17:56:00,
2013-01-06 12:57:00,72.2,67.8,30.10,NNE,33,2.0,3.0,86,0.00,,---,0.00,VWS V14.01,2013-01-06 17:57:00,
2013-01-06 13:00:00,72.4,67.6,30.10,NNE,33,1.0,3.0,85,0.00,,---,0.00,VWS V14.01,2013-01-06 18:00:00,
2013-01-06 13:01:00,72.5,67.7,30.10,NNE,33,2.0,3.0,85,0.00,,---,0.00,VWS V14.01,2013-01-06 18:01:00,
2013-01-06 13:02:00,72.5,68.1,30.10,NNE,33,2.0,2.0,86,0.00,,---,0.00,VWS V14.01,2013-01-06 18:02:00,
2013-01-06 13:05:00,72.6,68.2,30.10,NE,35,2.0,3.0,86,0.00,,---,0.00,VWS V14.01,2013-01-06 18:05:00,
2013-01-06 13:06:00,72.6,67.8,30.10,NE,35,1.0,2.0,85,0.00,,---,0.00,VWS V14.01,2013-01-06 18:06:00,
2013-01-06 13:07:00,72.7,67.9,30.10,NE,35,0.0,2.0,85,0.00,,---,0.00,VWS V14.01,2013-01-06 18:07:00,
2013-01-06 13:09:00,72.8,68.0,30.10,NE,35,1.0,2.0,85,0.00,,---,0.00,VWS V14.01,2013-01-06 18:09:00,
2013-01-06 13:12:00,72.9,68.1,30.10,NE,35,2.0,2.0,85,0.00,,---,0.00,VWS V14.01,2013-01-06 18:12:00,
2013-01-06 13:13:00,72.9,68.1,30.10,NE,35,3.0,3.0,85,0.00,,---,0.00,VWS V14.01,2013-01-06 18:13:00,
2013-01-06 13:15:00,72.8,68.0,30.10,NE,35,2.0,3.0,85,0.00,,---,0.00,VWS V14.01,2013-01-06 18:15:00,
2013-01-06 13:18:00,72.7,67.9,30.10,NE,35,2.0,3.0,85,0.00,,---,0.00,VWS V14.01,2013-01-06 18:18:00,
2013-01-06 13:20:00,72.6,68.2,30.09,NE,35,1.0,3.0,86,0.00,,---,0.00,VWS V14.01,2013-01-06 18:20:00,
2013-01-06 13:23:00,72.8,68.4,30.09,North,355,2.0,3.0,86,0.00,,---,0.00,VWS V14.01,2013-01-06 18:23:00,
2013-01-06 13:24:00,72.9,68.5,30.09,North,355,1.0,3.0,86,0.00,,---,0.00,VWS V14.01,2013-01-06 18:24:00,
2013-01-06 13:25:00,73.0,68.2,30.09,North,355,1.0,3.0,85,0.00,,---,0.00,VWS V14.01,2013-01-06 18:25:00,
2013-01-06 13:26:00,73.2,68.8,30.09,North,355,1.0,1.0,86,0.00,,---,0.00,VWS V14.01,2013-01-06 18:26:00,
2013-01-06 13:28:00,73.5,68.7,30.09,North,355,0.0,1.0,85,0.00,,---,0.00,VWS V14.01,2013-01-06 18:28:00,
2013-01-06 13:29:00,73.6,68.8,30.09,North,355,1.0,1.0,85,0.00,,---,0.00,VWS V14.01,2013-01-06 18:29:00,
2013-01-06 13:31:00,73.9,68.8,30.09,North,355,1.0,1.0,84,0.00,,---,0.00,VWS V14.01,2013-01-06 18:31:00,
2013-01-06 13:32:00,74.1,69.3,30.09,NNW,346,3.0,3.0,85,0.00,,---,0.00,VWS V14.01,2013-01-06 18:32:00,
2013-01-06 13:34:00,74.6,69.1,30.08,NNW,346,1.0,3.0,83,0.00,,---,0.00,VWS V14.01,2013-01-06 18:34:00,
2013-01-06 13:35:00,74.6,69.1,30.08,NNW,346,0.0,3.0,83,0.00,,---,0.00,VWS V14.01,2013-01-06 18:35:00,
2013-01-06 13:36:00,75.0,69.5,30.08,NNW,346,1.0,1.0,83,0.00,,---,0.00,VWS V14.01,2013-01-06 18:36:00,
2013-01-06 13:37:00,75.2,69.7,30.08,NNW,346,0.0,1.0,83,0.00,,---,0.00,VWS V14.01,2013-01-06 18:37:00,
2013-01-06 13:40:00,75.5,69.6,30.08,NNW,333,1.0,2.0,82,0.00,,---,0.00,VWS V14.01,2013-01-06 18:40:00,
2013-01-06 13:42:00,75.8,69.6,30.08,NNW,336,0.0,2.0,81,0.00,,---,0.00,VWS V14.01,2013-01-06 18:42:00,
2013-01-06 13:46:00,76.3,70.1,30.08,West,275,0.0,3.0,81,0.00,,---,0.00,VWS V14.01,2013-01-06 18:46:00,
2013-01-06 13:48:00,76.5,69.5,30.08,West,275,0.0,1.0,79,0.00,,---,0.00,VWS V14.01,2013-01-06 18:48:00,
2013-01-06 13:50:00,76.6,69.6,30.08,West,275,0.0,1.0,79,0.00,,---,0.00,VWS V14.01,2013-01-06 18:50:00,
2013-01-06 13:51:00,76.6,69.6,30.08,West,275,1.0,1.0,79,0.00,,---,0.00,VWS V14.01,2013-01-06 18:51:00,
2013-01-06 13:53:00,76.5,69.5,30.08,West,277,0.0,3.0,79,0.00,,---,0.00,VWS V14.01,2013-01-06 18:53:00,
2013-01-06 13:54:00,76.4,69.4,30.08,West,277,0.0,3.0,79,0.00,,---,0.00,VWS V14.01,2013-01-06 18:54:00,
2013-01-06 13:56:00,76.4,69.4,30.08,West,277,0.0,3.0,79,0.00,,---,0.00,VWS V14.01,2013-01-06 18:56:00,
2013-01-06 13:57:00,76.4,69.8,30.08,West,277,0.0,0.0,80,0.00,,---,0.00,VWS V14.01,2013-01-06 18:57:00,
2013-01-06 13:59:00,76.3,69.3,30.08,West,277,1.0,2.0,79,0.00,,---,0.00,VWS V14.01,2013-01-06 18:59:00,
2013-01-06 14:00:00,76.2,68.8,30.08,West,277,0.0,2.0,78,0.00,,---,0.00,VWS V14.01,2013-01-06 19:00:00,
2013-01-06 14:01:00,76.2,68.8,30.08,West,276,2.0,2.0,78,0.00,,---,0.00,VWS V14.01,2013-01-06 19:01:00,
2013-01-06 14:02:00,76.2,68.8,30.08,West,262,0.0,2.0,78,0.00,,---,0.00,VWS V14.01,2013-01-06 19:02:00,
2013-01-06 14:04:00,76.2,68.8,30.08,West,262,0.0,2.0,78,0.00,,---,0.00,VWS V14.01,2013-01-06 19:04:00,
2013-01-06 14:05:00,76.3,68.9,30.08,West,262,1.0,2.0,78,0.00,,---,0.00,VWS V14.01,2013-01-06 19:05:00,
2013-01-06 14:06:00,76.3,68.9,30.08,West,262,1.0,2.0,78,0.00,,---,0.00,VWS V14.01,2013-01-06 19:06:00,
2013-01-06 14:08:00,76.4,69.0,30.08,West,262,0.0,2.0,78,0.00,,---,0.00,VWS V14.01,2013-01-06 19:08:00,
2013-01-06 14:10:00,76.4,69.0,30.08,West,262,0.0,2.0,78,0.00,,---,0.00,VWS V14.01,2013-01-06 19:10:00,
2013-01-06 14:11:00,76.5,69.1,30.08,West,262,0.0,2.0,78,0.00,,---,0.00,VWS V14.01,2013-01-06 19:11:00,
2013-01-06 14:14:00,76.8,68.7,30.08,East,99,3.0,3.0,76,0.00,,---,0.00,VWS V14.01,2013-01-06 19:14:00,
2013-01-06 14:15:00,76.8,69.1,30.08,East,99,1.0,3.0,77,0.00,,---,0.00,VWS V14.01,2013-01-06 19:15:00,
2013-01-06 14:16:00,76.9,69.2,30.08,East,99,0.0,2.0,77,0.00,,---,0.00,VWS V14.01,2013-01-06 19:16:00,
2013-01-06 14:17:00,77.0,69.2,30.07,East,99,0.0,2.0,77,0.00,,---,0.00,VWS V14.01,2013-01-06 19:17:00,
2013-01-06 14:20:00,77.3,68.8,30.08,West,269,1.0,3.0,75,0.00,,---,0.00,VWS V14.01,2013-01-06 19:20:00,
2013-01-06 14:21:00,77.4,68.9,30.08,West,271,3.0,3.0,75,0.00,,---,0.00,VWS V14.01,2013-01-06 19:21:00,
2013-01-06 14:22:00,77.4,68.9,30.08,West,271,2.0,3.0,75,0.00,,---,0.00,VWS V14.01,2013-01-06 19:22:00,
2013-01-06 14:26:00,77.5,69.0,30.08,SSW,198,2.0,3.0,75,0.00,,---,0.00,VWS V14.01,2013-01-06 19:26:00,
2013-01-06 14:27:00,77.6,69.4,30.08,SSW,198,0.0,2.0,76,0.00,,---,0.00,VWS V14.01,2013-01-06 19:27:00,
2013-01-06 14:28:00,77.8,69.2,30.08,SSW,198,0.0,2.0,75,0.00,,---,0.00,VWS V14.01,2013-01-06 19:28:00,
2013-01-06 14:32:00,78.1,68.8,30.08,WSW,257,2.0,2.0,73,0.00,,---,0.00,VWS V14.01,2013-01-06 19:32:00,
2013-01-06 14:33:00,78.1,68.8,30.08,SW,235,5.0,7.0,73,0.00,,---,0.00,VWS V14.01,2013-01-06 19:33:00,
2013-01-06 14:37:00,77.4,68.1,30.08,West,275,0.0,4.0,73,0.00,,---,0.00,VWS V14.01,2013-01-06 19:37:00,
2013-01-06 14:38:00,77.4,68.1,30.08,West,275,2.0,4.0,73,0.00,,---,0.00,VWS V14.01,2013-01-06 19:38:00,
2013-01-06 14:40:00,77.1,67.8,30.08,West,275,1.0,4.0,73,0.00,,---,0.00,VWS V14.01,2013-01-06 19:40:00,
2013-01-06 14:43:00,76.1,67.2,30.08,West,274,2.0,4.0,74,0.00,,---,0.00,VWS V14.01,2013-01-06 19:43:00,
2013-01-06 14:48:00,75.1,67.4,30.08,SW,226,3.0,4.0,77,0.00,,---,0.00,VWS V14.01,2013-01-06 19:48:00,
2013-01-06 14:50:00,74.9,66.8,30.08,West,265,3.0,4.0,76,0.00,,---,0.00,VWS V14.01,2013-01-06 19:50:00,
2013-01-06 14:54:00,74.3,66.6,30.09,WSW,237,2.0,2.0,77,0.00,,---,0.00,VWS V14.01,2013-01-06 19:54:00,
2013-01-06 14:55:00,74.1,66.4,30.09,West,271,2.0,4.0,77,0.00,,---,0.00,VWS V14.01,2013-01-06 19:55:00,
2013-01-06 14:59:00,73.5,66.2,30.08,West,273,1.0,3.0,78,0.00,,---,0.00,VWS V14.01,2013-01-06 19:59:00,
2013-01-06 15:01:00,73.1,66.2,30.08,WNW,300,2.0,3.0,79,0.00,,---,0.00,VWS V14.01,2013-01-06 20:01:00,
2013-01-06 15:06:00,72.6,66.1,30.08,West,276,0.0,0.0,80,0.00,,---,0.00,VWS V14.01,2013-01-06 20:06:00,
2013-01-06 15:07:00,72.5,66.0,30.08,WNW,300,2.0,3.0,80,0.00,,---,0.00,VWS V14.01,2013-01-06 20:07:00,
2013-01-06 15:11:00,72.2,65.7,30.08,West,269,1.0,2.0,80,0.00,,---,0.00,VWS V14.01,2013-01-06 20:11:00,
2013-01-06 15:12:00,72.1,65.9,30.08,West,269,1.0,2.0,81,0.00,,---,0.00,VWS V14.01,2013-01-06 20:12:00,
2013-01-06 15:15:00,72.0,65.9,30.08,SSW,213,1.0,3.0,81,0.00,,---,0.00,VWS V14.01,2013-01-06 20:15:00,
2013-01-06 15:16:00,71.9,65.8,30.08,SW,236,1.0,2.0,81,0.00,,---,0.00,VWS V14.01,2013-01-06 20:16:00,
2013-01-06 15:17:00,71.7,65.6,30.08,SW,236,0.0,2.0,81,0.00,,---,0.00,VWS V14.01,2013-01-06 20:17:00,
2013-01-06 15:20:00,71.6,65.8,30.08,WNW,289,1.0,3.0,82,0.00,,---,0.00,VWS V14.01,2013-01-06 20:20:00,
2013-01-06 15:22:00,71.6,65.8,30.08,WNW,289,0.0,2.0,82,0.00,,---,0.00,VWS V14.01,2013-01-06 20:22:00,
2013-01-06 15:23:00,71.5,65.7,30.08,WNW,289,0.0,2.0,82,0.00,,---,0.00,VWS V14.01,2013-01-06 20:23:00,
2013-01-06 15:25:00,71.2,65.4,30.08,WNW,289,0.0,2.0,82,0.00,,---,0.00,VWS V14.01,2013-01-06 20:25:00,
2013-01-06 15:27:00,71.1,65.3,30.08,WNW,289,0.0,1.0,82,0.00,,---,0.00,VWS V14.01,2013-01-06 20:27:00,
2013-01-06 15:28:00,71.0,65.6,30.08,WNW,289,0.0,1.0,83,0.00,,---,0.00,VWS V14.01,2013-01-06 20:28:00,
2013-01-06 15:31:00,71.1,65.7,30.08,WNW,289,0.0,2.0,83,0.00,,---,0.00,VWS V14.01,2013-01-06 20:31:00,
2013-01-06 15:32:00,71.0,65.6,30.08,WSW,258,1.0,3.0,83,0.00,,---,0.00,VWS V14.01,2013-01-06 20:32:00,
2013-01-06 15:33:00,71.0,65.6,30.08,WSW,258,0.0,3.0,83,0.00,,---,0.00,VWS V14.01,2013-01-06 20:33:00,
2013-01-06 15:37:00,70.8,65.4,30.08,West,259,1.0,2.0,83,0.00,,---,0.00,VWS V14.01,2013-01-06 20:37:00,
2013-01-06 15:38:00,70.6,65.2,30.08,SW,221,2.0,4.0,83,0.00,,---,0.00,VWS V14.01,2013-01-06 20:38:00,
2013-01-06 15:39:00,70.6,65.2,30.08,West,265,0.0,4.0,83,0.00,,---,0.00,VWS V14.01,2013-01-06 20:39:00,
2013-01-06 15:42:00,70.5,65.4,30.09,WSW,252,0.0,2.0,84,0.00,,---,0.00,VWS V14.01,2013-01-06 20:42:00,
2013-01-06 15:44:00,70.4,65.3,30.09,WSW,252,0.0,2.0,84,0.00,,---,0.00,VWS V14.01,2013-01-06 20:44:00,
2013-01-06 15:48:00,70.4,65.3,30.09,WSW,246,1.0,3.0,84,0.00,,---,0.00,VWS V14.01,2013-01-06 20:48:00,
2013-01-06 15:50:00,70.3,65.2,30.09,WSW,246,1.0,3.0,84,0.00,,---,0.00,VWS V14.01,2013-01-06 20:50:00,
2013-01-06 15:52:00,70.2,65.1,30.09,WSW,241,0.0,2.0,84,0.00,,---,0.00,VWS V14.01,2013-01-06 20:52:00,
2013-01-06 15:54:00,70.0,64.9,30.09,WSW,241,1.0,2.0,84,0.00,,---,0.00,VWS V14.01,2013-01-06 20:54:00,
2013-01-06 15:55:00,69.9,65.2,30.09,WSW,241,1.0,2.0,85,0.00,,---,0.00,VWS V14.01,2013-01-06 20:55:00,
2013-01-06 15:57:00,69.9,65.2,30.09,WSW,241,1.0,2.0,85,0.00,,---,0.00,VWS V14.01,2013-01-06 20:57:00,
2013-01-06 15:59:00,69.8,64.8,30.09,WSW,240,0.0,2.0,84,0.00,,---,0.00,VWS V14.01,2013-01-06 20:59:00,
2013-01-06 16:01:00,69.7,64.7,30.09,WSW,242,2.0,2.0,84,0.00,,---,0.00,VWS V14.01,2013-01-06 21:01:00,
2013-01-06 16:02:00,69.7,65.0,30.09,WSW,242,0.0,2.0,85,0.00,,---,0.00,VWS V14.01,2013-01-06 21:02:00,
2013-01-06 16:03:00,69.6,64.9,30.09,WSW,242,1.0,2.0,85,0.00,,---,0.00,VWS V14.01,2013-01-06 21:03:00,
2013-01-06 16:05:00,69.6,64.9,30.09,WSW,242,1.0,2.0,85,0.00,,---,0.00,VWS V14.01,2013-01-06 21:05:00,
2013-01-06 16:07:00,69.4,64.7,30.09,WSW,242,2.0,2.0,85,0.00,,---,0.00,VWS V14.01,2013-01-06 21:07:00,
2013-01-06 16:10:00,69.1,64.4,30.09,SW,222,1.0,3.0,85,0.00,,---,0.00,VWS V14.01,2013-01-06 21:10:00,
2013-01-06 16:11:00,69.0,64.6,30.09,SW,222,0.0,1.0,86,0.00,,---,0.00,VWS V14.01,2013-01-06 21:11:00,
2013-01-06 16:12:00,68.9,64.6,30.09,SW,222,1.0,1.0,86,0.00,,---,0.00,VWS V14.01,2013-01-06 21:12:00,
2013-01-06 16:13:00,68.8,64.4,30.09,West,275,2.0,3.0,86,0.00,,---,0.00,VWS V14.01,2013-01-06 21:13:00,
2013-01-06 16:15:00,68.6,64.2,30.09,West,261,1.0,4.0,86,0.00,,---,0.00,VWS V14.01,2013-01-06 21:15:00,
2013-01-06 16:17:00,68.4,64.1,30.09,WSW,252,3.0,3.0,86,0.00,,---,0.00,VWS V14.01,2013-01-06 21:17:00,
2013-01-06 16:18:00,68.3,64.3,30.09,WSW,255,0.0,3.0,87,0.00,,---,0.00,VWS V14.01,2013-01-06 21:18:00,
2013-01-06 16:22:00,67.9,63.9,30.09,SW,236,2.0,3.0,87,0.00,,---,0.00,VWS V14.01,2013-01-06 21:22:00,
2013-01-06 16:23:00,67.9,63.9,30.09,WSW,255,2.0,3.0,87,0.00,,---,0.00,VWS V14.01,2013-01-06 21:23:00,
2013-01-06 16:24:00,67.7,63.7,30.09,SW,229,1.0,3.0,87,0.00,,---,0.00,VWS V14.01,2013-01-06 21:24:00,
2013-01-06 16:27:00,67.3,63.6,30.10,West,275,1.0,3.0,88,0.00,,---,0.00,VWS V14.01,2013-01-06 21:27:00,
2013-01-06 16:28:00,67.2,63.5,30.10,WSW,251,2.0,3.0,88,0.00,,---,0.00,VWS V14.01,2013-01-06 21:28:00,
2013-01-06 16:29:00,67.0,63.3,30.09,West,277,2.0,3.0,88,0.00,,---,0.00,VWS V14.01,2013-01-06 21:29:00,
2013-01-06 16:31:00,66.7,63.4,30.10,West,277,2.0,2.0,89,0.00,,---,0.00,VWS V14.01,2013-01-06 21:31:00,
2013-01-06 16:33:00,66.6,63.3,30.10,WSW,257,1.0,5.0,89,0.00,,---,0.00,VWS V14.01,2013-01-06 21:33:00,
2013-01-06 16:34:00,66.4,63.1,30.10,WSW,252,2.0,5.0,89,0.00,,---,0.00,VWS V14.01,2013-01-06 21:34:00,
2013-01-06 16:37:00,66.2,63.2,30.10,South,190,2.0,2.0,90,0.00,,---,0.00,VWS V14.01,2013-01-06 21:37:00,
2013-01-06 16:38:00,66.1,63.1,30.10,WSW,246,2.0,2.0,90,0.00,,---,0.00,VWS V14.01,2013-01-06 21:38:00,
2013-01-06 16:39:00,66.0,63.0,30.10,SW,229,0.0,3.0,90,0.00,,---,0.00,VWS V14.01,2013-01-06 21:39:00,
2013-01-06 16:41:00,65.9,62.9,30.10,SW,234,2.0,2.0,90,0.00,,---,0.00,VWS V14.01,2013-01-06 21:41:00,
2013-01-06 16:43:00,65.7,63.0,30.10,SW,234,2.0,3.0,91,0.00,,---,0.00,VWS V14.01,2013-01-06 21:43:00,
2013-01-06 16:44:00,65.6,62.9,30.10,West,280,2.0,7.0,91,0.00,,---,0.00,VWS V14.01,2013-01-06 21:44:00,
2013-01-06 16:47:00,65.5,62.8,30.10,WSW,240,2.0,3.0,91,0.00,,---,0.00,VWS V14.01,2013-01-06 21:47:00,
2013-01-06 16:49:00,65.3,62.6,30.10,WSW,240,0.0,4.0,91,0.00,,---,0.00,VWS V14.01,2013-01-06 21:49:00,
2013-01-06 16:51:00,65.3,62.6,30.10,WSW,240,0.0,4.0,91,0.00,,---,0.00,VWS V14.01,2013-01-06 21:51:00,
2013-01-06 16:52:00,65.3,62.9,30.10,WSW,240,1.0,2.0,92,0.00,,---,0.00,VWS V14.01,2013-01-06 21:52:00,
2013-01-06 16:54:00,65.3,62.9,30.10,WSW,252,2.0,3.0,92,0.00,,---,0.00,VWS V14.01,2013-01-06 21:54:00,
2013-01-06 16:55:00,65.3,62.9,30.10,WSW,252,1.0,3.0,92,0.00,,---,0.00,VWS V14.01,2013-01-06 21:55:00,
2013-01-06 16:56:00,65.3,62.9,30.10,WSW,252,0.0,3.0,92,0.00,,---,0.00,VWS V14.01,2013-01-06 21:56:00,
2013-01-06 16:57:00,65.3,62.9,30.10,WSW,252,0.0,2.0,92,0.00,,---,0.00,VWS V14.01,2013-01-06 21:57:00,
2013-01-06 17:00:00,65.3,62.9,30.10,West,265,0.0,2.0,92,0.00,,---,0.00,VWS V14.01,2013-01-06 22:00:00,
2013-01-06 17:01:00,65.3,62.9,30.10,West,265,0.0,2.0,92,0.00,,---,0.00,VWS V14.01,2013-01-06 22:01:00,
2013-01-06 17:02:00,65.3,62.9,30.10,West,271,1.0,2.0,92,0.00,,---,0.00,VWS V14.01,2013-01-06 22:02:00,
2013-01-06 17:05:00,65.3,62.9,30.10,West,262,0.0,2.0,92,0.00,,---,0.00,VWS V14.01,2013-01-06 22:05:00,
2013-01-06 17:06:00,65.4,63.0,30.10,West,262,1.0,1.0,92,0.00,,---,0.00,VWS V14.01,2013-01-06 22:06:00,
2013-01-06 17:08:00,65.3,62.9,30.10,West,262,1.0,2.0,92,0.00,,---,0.00,VWS V14.01,2013-01-06 22:08:00,
2013-01-06 17:09:00,65.3,62.9,30.10,West,261,2.0,2.0,92,0.00,,---,0.00,VWS V14.01,2013-01-06 22:09:00,
2013-01-06 17:11:00,65.3,62.9,30.10,WSW,249,1.0,2.0,92,0.00,,---,0.00,VWS V14.01,2013-01-06 22:11:00,
2013-01-06 17:12:00,65.3,62.9,30.10,WSW,249,0.0,1.0,92,0.00,,---,0.00,VWS V14.01,2013-01-06 22:12:00,
2013-01-06 17:14:00,65.3,62.9,30.10,WSW,254,1.0,2.0,92,0.00,,---,0.00,VWS V14.01,2013-01-06 22:14:00,
2013-01-06 17:16:00,65.3,62.9,30.10,WSW,254,1.0,1.0,92,0.00,,---,0.00,VWS V14.01,2013-01-06 22:16:00,
2013-01-06 17:17:00,65.2,62.8,30.10,WSW,254,1.0,2.0,92,0.00,,---,0.00,VWS V14.01,2013-01-06 22:17:00,
2013-01-06 17:19:00,65.2,62.8,30.10,WSW,254,1.0,2.0,92,0.00,,---,0.00,VWS V14.01,2013-01-06 22:19:00,
2013-01-06 17:21:00,65.2,62.8,30.10,WSW,254,2.0,2.0,92,0.00,,---,0.00,VWS V14.01,2013-01-06 22:21:00,
2013-01-06 17:23:00,65.0,62.9,30.10,WSW,254,1.0,2.0,93,0.00,,---,0.00,VWS V14.01,2013-01-06 22:23:00,
2013-01-06 17:25:00,65.0,62.9,30.10,West,273,1.0,2.0,93,0.00,,---,0.00,VWS V14.01,2013-01-06 22:25:00,
2013-01-06 17:26:00,64.9,62.8,30.10,West,273,0.0,1.0,93,0.00,,---,0.00,VWS V14.01,2013-01-06 22:26:00,
2013-01-06 17:29:00,64.9,62.8,30.10,WNW,300,0.0,3.0,93,0.00,,---,0.00,VWS V14.01,2013-01-06 22:29:00,
2013-01-06 17:30:00,64.8,62.7,30.10,WNW,300,1.0,3.0,93,0.00,,---,0.00,VWS V14.01,2013-01-06 22:30:00,
2013-01-06 17:31:00,64.8,62.7,30.10,WNW,300,1.0,2.0,93,0.00,,---,0.00,VWS V14.01,2013-01-06 22:31:00,
2013-01-06 17:32:00,64.8,62.7,30.10,WNW,300,2.0,2.0,93,0.00,,---,0.00,VWS V14.01,2013-01-06 22:32:00,
2013-01-06 17:34:00,64.7,62.6,30.11,West,267,1.0,2.0,93,0.00,,---,0.00,VWS V14.01,2013-01-06 22:34:00,
2013-01-06 17:35:00,64.7,62.6,30.11,West,267,1.0,2.0,93,0.00,,---,0.00,VWS V14.01,2013-01-06 22:35:00,
2013-01-06 17:36:00,64.7,62.6,30.11,West,267,1.0,2.0,93,0.00,,---,0.00,VWS V14.01,2013-01-06 22:36:00,
2013-01-06 17:37:00,64.7,62.6,30.11,West,267,1.0,2.0,93,0.00,,---,0.00,VWS V14.01,2013-01-06 22:37:00,
2013-01-06 17:39:00,64.6,62.8,30.11,SW,228,2.0,4.0,94,0.00,,---,0.00,VWS V14.01,2013-01-06 22:39:00,
2013-01-06 17:41:00,64.6,62.8,30.11,SW,229,2.0,4.0,94,0.00,,---,0.00,VWS V14.01,2013-01-06 22:41:00,
2013-01-06 17:42:00,64.6,62.8,30.11,SW,229,1.0,2.0,94,0.00,,---,0.00,VWS V14.01,2013-01-06 22:42:00,
2013-01-06 17:46:00,64.6,62.8,30.11,WSW,249,0.0,3.0,94,0.00,,---,0.00,VWS V14.01,2013-01-06 22:46:00,
2013-01-06 17:47:00,64.5,62.7,30.11,WSW,249,1.0,1.0,94,0.00,,---,0.00,VWS V14.01,2013-01-06 22:47:00,
2013-01-06 17:48:00,64.5,62.7,30.11,WSW,243,2.0,2.0,94,0.00,,---,0.00,VWS V14.01,2013-01-06 22:48:00,
2013-01-06 17:49:00,64.5,62.7,30.11,WSW,243,1.0,2.0,94,0.00,,---,0.00,VWS V14.01,2013-01-06 22:49:00,
2013-01-06 17:51:00,64.5,62.7,30.11,West,277,2.0,2.0,94,0.00,,---,0.00,VWS V14.01,2013-01-06 22:51:00,
2013-01-06 17:53:00,64.6,62.8,30.11,West,277,0.0,2.0,94,0.00,,---,0.00,VWS V14.01,2013-01-06 22:53:00,
2013-01-06 17:54:00,64.5,62.7,30.11,WSW,249,1.0,3.0,94,0.00,,---,0.00,VWS V14.01,2013-01-06 22:54:00,
2013-01-06 17:56:00,64.5,62.7,30.11,WSW,249,0.0,2.0,94,0.00,,---,0.00,VWS V14.01,2013-01-06 22:56:00,
2013-01-06 17:58:00,64.6,62.8,30.11,WSW,249,0.0,2.0,94,0.00,,---,0.00,VWS V14.01,2013-01-06 22:58:00,
2013-01-06 17:59:00,64.5,62.7,30.11,WSW,258,1.0,2.0,94,0.00,,---,0.00,VWS V14.01,2013-01-06 22:59:00,
2013-01-06 18:00:00,64.5,62.7,30.11,WSW,258,0.0,2.0,94,0.00,,---,0.00,VWS V14.01,2013-01-06 23:00:00,
2013-01-06 18:02:00,64.5,62.7,30.11,West,267,2.0,3.0,94,0.00,,---,0.00,VWS V14.01,2013-01-06 23:02:00,
2013-01-06 18:04:00,64.5,62.7,30.11,West,272,1.0,3.0,94,0.00,,---,0.00,VWS V14.01,2013-01-06 23:04:00,
2013-01-06 18:05:00,64.6,62.8,30.11,West,272,0.0,3.0,94,0.00,,---,0.00,VWS V14.01,2013-01-06 23:05:00,
2013-01-06 18:07:00,64.6,62.8,30.11,West,272,0.0,0.0,94,0.00,,---,0.00,VWS V14.01,2013-01-06 23:07:00,
2013-01-06 18:10:00,64.6,63.1,30.11,West,259,1.0,5.0,95,0.00,,---,0.00,VWS V14.01,2013-01-06 23:10:00,
2013-01-06 18:11:00,64.6,63.1,30.11,West,259,0.0,5.0,95,0.00,,---,0.00,VWS V14.01,2013-01-06 23:11:00,
2013-01-06 18:12:00,64.7,63.2,30.11,West,259,0.0,1.0,95,0.00,,---,0.00,VWS V14.01,2013-01-06 23:12:00,
2013-01-06 18:13:00,64.7,63.2,30.11,West,259,0.0,1.0,95,0.00,,---,0.00,VWS V14.01,2013-01-06 23:13:00,
2013-01-06 18:16:00,64.7,63.2,30.11,West,259,0.0,1.0,95,0.00,,---,0.00,VWS V14.01,2013-01-06 23:16:00,
2013-01-06 18:17:00,64.7,63.2,30.11,West,259,0.0,0.0,95,0.00,,---,0.00,VWS V14.01,2013-01-06 23:17:00,
2013-01-06 18:19:00,64.8,63.3,30.11,West,259,0.0,1.0,95,0.00,,---,0.00,VWS V14.01,2013-01-06 23:19:00,
2013-01-06 18:21:00,64.8,63.3,30.11,West,259,0.0,0.0,95,0.00,,---,0.00,VWS V14.01,2013-01-06 23:21:00,
2013-01-06 18:22:00,64.8,63.3,30.11,West,259,0.0,0.0,95,0.00,,---,0.00,VWS V14.01,2013-01-06 23:22:00,
2013-01-06 18:24:00,64.9,63.4,30.11,West,259,1.0,2.0,95,0.00,,---,0.00,VWS V14.01,2013-01-06 23:24:00,
2013-01-06 18:27:00,64.9,63.4,30.11,West,259,0.0,1.0,95,0.00,,---,0.00,VWS V14.01,2013-01-06 23:27:00,
2013-01-06 18:28:00,64.9,63.4,30.11,West,259,0.0,1.0,95,0.00,,---,0.00,VWS V14.01,2013-01-06 23:28:00,
2013-01-06 18:30:00,65.0,63.5,30.11,West,259,0.0,3.0,95,0.00,,---,0.00,VWS V14.01,2013-01-06 23:30:00,
2013-01-06 18:31:00,65.0,63.5,30.11,West,259,0.0,0.0,95,0.00,,---,0.00,VWS V14.01,2013-01-06 23:31:00,
2013-01-06 18:33:00,65.0,63.5,30.11,West,259,0.0,1.0,95,0.00,,---,0.00,VWS V14.01,2013-01-06 23:33:00,
2013-01-06 18:35:00,65.0,63.5,30.11,West,259,0.0,1.0,95,0.00,,---,0.00,VWS V14.01,2013-01-06 23:35:00,
2013-01-06 18:36:00,65.1,63.6,30.11,West,259,0.0,1.0,95,0.00,,---,0.00,VWS V14.01,2013-01-06 23:36:00,
2013-01-06 18:37:00,65.1,63.6,30.11,West,259,0.0,1.0,95,0.00,,---,0.00,VWS V14.01,2013-01-06 23:37:00,
2013-01-06 18:39:00,65.1,63.6,30.11,West,259,1.0,1.0,95,0.00,,---,0.00,VWS V14.01,2013-01-06 23:39:00,
2013-01-06 18:41:00,65.1,63.6,30.11,West,277,3.0,3.0,95,0.00,,---,0.00,VWS V14.01,2013-01-06 23:41:00,
2013-01-06 18:42:00,65.2,63.7,30.11,West,281,0.0,3.0,95,0.00,,---,0.00,VWS V14.01,2013-01-06 23:42:00,
2013-01-06 18:43:00,65.2,63.7,30.11,West,281,0.0,3.0,95,0.00,,---,0.00,VWS V14.01,2013-01-06 23:43:00,
2013-01-06 18:45:00,65.2,63.7,30.11,West,263,0.0,3.0,95,0.00,,---,0.00,VWS V14.01,2013-01-06 23:45:00,
2013-01-06 18:46:00,65.2,63.7,30.11,West,263,0.0,1.0,95,0.00,,---,0.00,VWS V14.01,2013-01-06 23:46:00,
2013-01-06 18:48:00,65.2,63.7,30.10,West,262,0.0,1.0,95,0.00,,---,0.00,VWS V14.01,2013-01-06 23:48:00,
2013-01-06 18:49:00,65.2,63.7,30.10,West,263,0.0,1.0,95,0.00,,---,0.00,VWS V14.01,2013-01-06 23:49:00,
2013-01-06 18:51:00,65.2,63.7,30.10,West,263,0.0,1.0,95,0.00,,---,0.00,VWS V14.01,2013-01-06 23:51:00,
2013-01-06 18:52:00,65.2,63.7,30.10,West,263,0.0,0.0,95,0.00,,---,0.00,VWS V14.01,2013-01-06 23:52:00,
2013-01-06 18:55:00,65.2,63.7,30.10,West,263,0.0,0.0,95,0.00,,---,0.00,VWS V14.01,2013-01-06 23:55:00,
2013-01-06 18:56:00,65.2,63.7,30.10,West,263,0.0,0.0,95,0.00,,---,0.00,VWS V14.01,2013-01-06 23:56:00,
2013-01-06 18:57:00,65.2,63.7,30.10,West,263,0.0,0.0,95,0.00,,---,0.00,VWS V14.01,2013-01-06 23:57:00,
2013-01-06 19:00:00,65.2,63.7,30.11,West,263,0.0,0.0,95,0.00,,---,0.00,VWS V14.01,2013-01-07 00:00:00,
2013-01-06 19:02:00,65.2,63.7,30.11,West,263,0.0,0.0,95,0.00,,---,0.00,VWS V14.01,2013-01-07 00:02:00,
2013-01-06 19:03:00,65.1,63.6,30.10,West,263,0.0,0.0,95,0.00,,---,0.00,VWS V14.01,2013-01-07 00:03:00,
2013-01-06 19:05:00,65.1,63.6,30.10,West,263,0.0,0.0,95,0.00,,---,0.00,VWS V14.01,2013-01-07 00:05:00,
2013-01-06 19:06:00,65.1,63.6,30.10,West,263,0.0,0.0,95,0.00,,---,0.00,VWS V14.01,2013-01-07 00:06:00,
2013-01-06 19:08:00,65.1,63.6,30.10,West,263,0.0,1.0,95,0.00,,---,0.00,VWS V14.01,2013-01-07 00:08:00,
2013-01-06 19:10:00,65.1,63.9,30.10,West,263,0.0,1.0,96,0.00,,---,0.00,VWS V14.01,2013-01-07 00:10:00,
2013-01-06 19:11:00,65.1,63.9,30.10,West,263,0.0,0.0,96,0.00,,---,0.00,VWS V14.01,2013-01-07 00:11:00,
2013-01-06 19:13:00,65.0,63.8,30.10,West,263,0.0,0.0,96,0.00,,---,0.00,VWS V14.01,2013-01-07 00:13:00,
2013-01-06 19:14:00,65.0,63.8,30.10,West,263,0.0,0.0,96,0.00,,---,0.00,VWS V14.01,2013-01-07 00:14:00,
2013-01-06 19:16:00,65.0,63.8,30.10,West,263,0.0,0.0,96,0.00,,---,0.00,VWS V14.01,2013-01-07 00:16:00,
2013-01-06 19:17:00,65.0,63.8,30.10,West,263,0.0,0.0,96,0.00,,---,0.00,VWS V14.01,2013-01-07 00:17:00,
2013-01-06 19:19:00,65.0,63.8,30.10,West,263,0.0,0.0,96,0.00,,---,0.00,VWS V14.01,2013-01-07 00:19:00,
2013-01-06 19:22:00,64.9,63.7,30.10,West,263,0.0,0.0,96,0.00,,---,0.00,VWS V14.01,2013-01-07 00:22:00,
2013-01-06 19:23:00,64.9,63.7,30.10,West,263,0.0,0.0,96,0.00,,---,0.00,VWS V14.01,2013-01-07 00:23:00,
2013-01-06 19:24:00,64.9,63.7,30.10,West,263,0.0,0.0,96,0.00,,---,0.00,VWS V14.01,2013-01-07 00:24:00,
2013-01-06 19:25:00,64.9,63.7,30.10,West,263,0.0,0.0,96,0.00,,---,0.00,VWS V14.01,2013-01-07 00:25:00,
2013-01-06 19:28:00,64.9,63.7,30.10,West,263,0.0,0.0,96,0.00,,---,0.00,VWS V14.01,2013-01-07 00:28:00,
2013-01-06 19:30:00,64.9,63.7,30.10,West,263,0.0,0.0,96,0.00,,---,0.00,VWS V14.01,2013-01-07 00:30:00,
2013-01-06 19:31:00,64.9,63.7,30.10,West,263,0.0,0.0,96,0.00,,---,0.00,VWS V14.01,2013-01-07 00:31:00,
2013-01-06 19:33:00,64.8,63.6,30.10,West,263,0.0,0.0,96,0.00,,---,0.00,VWS V14.01,2013-01-07 00:33:00,
2013-01-06 19:36:00,64.8,63.6,30.10,West,263,0.0,0.0,96,0.00,,---,0.00,VWS V14.01,2013-01-07 00:36:00,
2013-01-06 19:37:00,64.8,63.6,30.10,West,263,0.0,0.0,96,0.00,,---,0.00,VWS V14.01,2013-01-07 00:37:00,
2013-01-06 19:40:00,64.8,63.6,30.10,West,263,0.0,0.0,96,0.00,,---,0.00,VWS V14.01,2013-01-07 00:40:00,
2013-01-06 19:41:00,64.7,63.5,30.10,West,263,0.0,0.0,96,0.00,,---,0.00,VWS V14.01,2013-01-07 00:41:00,
2013-01-06 19:42:00,64.8,63.6,30.10,West,263,0.0,0.0,96,0.00,,---,0.00,VWS V14.01,2013-01-07 00:42:00,
2013-01-06 19:45:00,64.8,63.6,30.10,West,263,0.0,0.0,96,0.00,,---,0.00,VWS V14.01,2013-01-07 00:45:00,
2013-01-06 19:47:00,64.7,63.5,30.09,West,263,0.0,0.0,96,0.00,,---,0.00,VWS V14.01,2013-01-07 00:47:00,
2013-01-06 19:48:00,64.7,63.5,30.09,West,263,0.0,0.0,96,0.00,,---,0.00,VWS V14.01,2013-01-07 00:48:00,
2013-01-06 19:51:00,64.8,63.6,30.09,West,263,0.0,0.0,96,0.00,,---,0.00,VWS V14.01,2013-01-07 00:51:00,
2013-01-06 19:53:00,64.8,63.6,30.09,West,263,0.0,0.0,96,0.00,,---,0.00,VWS V14.01,2013-01-07 00:53:00,
2013-01-06 19:54:00,64.7,63.5,30.09,West,263,0.0,0.0,96,0.00,,---,0.00,VWS V14.01,2013-01-07 00:54:00,
2013-01-06 19:55:00,64.7,63.5,30.09,West,263,0.0,0.0,96,0.00,,---,0.00,VWS V14.01,2013-01-07 00:55:00,
2013-01-06 19:58:00,64.7,63.5,30.10,West,263,0.0,0.0,96,0.00,,---,0.00,VWS V14.01,2013-01-07 00:58:00,
2013-01-06 19:59:00,64.7,63.5,30.10,West,263,0.0,0.0,96,0.00,,---,0.00,VWS V14.01,2013-01-07 00:59:00,
2013-01-06 20:01:00,64.7,63.5,30.10,West,263,0.0,0.0,96,0.00,,---,0.00,VWS V14.01,2013-01-07 01:01:00,
2013-01-06 20:03:00,64.6,63.4,30.10,West,263,0.0,0.0,96,0.00,,---,0.00,VWS V14.01,2013-01-07 01:03:00,
2013-01-06 20:04:00,64.6,63.4,30.10,West,263,0.0,0.0,96,0.00,,---,0.00,VWS V14.01,2013-01-07 01:04:00,
2013-01-06 20:06:00,64.6,63.4,30.10,West,263,0.0,0.0,96,0.00,,---,0.00,VWS V14.01,2013-01-07 01:06:00,
2013-01-06 20:07:00,64.6,63.4,30.10,West,263,0.0,0.0,96,0.00,,---,0.00,VWS V14.01,2013-01-07 01:07:00,
2013-01-06 20:09:00,64.6,63.4,30.10,West,263,0.0,0.0,96,0.00,,---,0.00,VWS V14.01,2013-01-07 01:09:00,
2013-01-06 20:11:00,64.6,63.4,30.10,West,263,0.0,0.0,96,0.00,,---,0.00,VWS V14.01,2013-01-07 01:11:00,
2013-01-06 20:13:00,64.6,63.4,30.10,West,263,0.0,0.0,96,0.00,,---,0.00,VWS V14.01,2013-01-07 01:13:00,
2013-01-06 20:14:00,64.6,63.4,30.10,West,263,0.0,0.0,96,0.00,,---,0.00,VWS V14.01,2013-01-07 01:14:00,
2013-01-06 20:15:00,64.6,63.4,30.10,West,263,0.0,0.0,96,0.00,,---,0.00,VWS V14.01,2013-01-07 01:15:00,
2013-01-06 20:17:00,64.6,63.4,30.10,West,263,0.0,0.0,96,0.00,,---,0.00,VWS V14.01,2013-01-07 01:17:00,
2013-01-06 20:19:00,64.6,63.4,30.10,West,263,0.0,0.0,96,0.00,,---,0.00,VWS V14.01,2013-01-07 01:19:00,
2013-01-06 20:20:00,64.6,63.4,30.10,West,263,0.0,0.0,96,0.00,,---,0.00,VWS V14.01,2013-01-07 01:20:00,
2013-01-06 20:22:00,64.6,63.4,30.10,West,263,0.0,0.0,96,0.00,,---,0.00,VWS V14.01,2013-01-07 01:22:00,
2013-01-06 20:24:00,64.6,63.7,30.10,West,263,0.0,0.0,97,0.00,,---,0.00,VWS V14.01,2013-01-07 01:24:00,
2013-01-06 20:25:00,64.6,63.7,30.11,West,263,0.0,0.0,97,0.00,,---,0.00,VWS V14.01,2013-01-07 01:25:00,
2013-01-06 20:26:00,64.6,63.7,30.11,West,263,0.0,0.0,97,0.00,,---,0.00,VWS V14.01,2013-01-07 01:26:00,
2013-01-06 20:27:00,64.6,63.7,30.11,West,263,0.0,0.0,97,0.00,,---,0.00,VWS V14.01,2013-01-07 01:27:00,
2013-01-06 20:30:00,64.6,63.7,30.11,West,263,0.0,0.0,97,0.00,,---,0.00,VWS V14.01,2013-01-07 01:30:00,
2013-01-06 20:31:00,64.6,63.7,30.11,West,263,0.0,0.0,97,0.00,,---,0.00,VWS V14.01,2013-01-07 01:31:00,
2013-01-06 20:32:00,64.6,63.7,30.11,West,263,0.0,0.0,97,0.00,,---,0.00,VWS V14.01,2013-01-07 01:32:00,
2013-01-06 20:33:00,64.5,63.6,30.11,West,263,0.0,1.0,97,0.00,,---,0.00,VWS V14.01,2013-01-07 01:33:00,
2013-01-06 20:36:00,64.6,63.7,30.11,West,263,0.0,0.0,97,0.00,,---,0.00,VWS V14.01,2013-01-07 01:36:00,
2013-01-06 20:37:00,64.6,63.7,30.11,West,263,0.0,0.0,97,0.00,,---,0.00,VWS V14.01,2013-01-07 01:37:00,
2013-01-06 20:39:00,64.6,63.7,30.11,West,263,0.0,0.0,97,0.00,,---,0.00,VWS V14.01,2013-01-07 01:39:00,
2013-01-06 20:42:00,64.6,63.7,30.11,West,263,0.0,0.0,97,0.00,,---,0.00,VWS V14.01,2013-01-07 01:42:00,
2013-01-06 20:44:00,64.7,63.8,30.11,West,263,0.0,1.0,97,0.00,,---,0.00,VWS V14.01,2013-01-07 01:44:00,
2013-01-06 20:46:00,64.7,63.8,30.11,West,263,0.0,1.0,97,0.00,,---,0.00,VWS V14.01,2013-01-07 01:46:00,
2013-01-06 20:47:00,64.7,63.8,30.11,West,263,0.0,0.0,97,0.00,,---,0.00,VWS V14.01,2013-01-07 01:47:00,
2013-01-06 20:48:00,64.7,63.8,30.11,West,263,1.0,1.0,97,0.00,,---,0.00,VWS V14.01,2013-01-07 01:48:00,
2013-01-06 20:49:00,64.7,63.8,30.11,West,263,0.0,1.0,97,0.00,,---,0.00,VWS V14.01,2013-01-07 01:49:00,
2013-01-06 20:51:00,64.8,63.9,30.11,West,263,0.0,0.0,97,0.00,,---,0.00,VWS V14.01,2013-01-07 01:51:00,
2013-01-06 20:54:00,64.8,63.9,30.11,West,263,0.0,0.0,97,0.00,,---,0.00,VWS V14.01,2013-01-07 01:54:00,
2013-01-06 20:55:00,64.8,63.9,30.11,West,263,0.0,0.0,97,0.00,,---,0.00,VWS V14.01,2013-01-07 01:55:00,
2013-01-06 20:56:00,64.9,64.0,30.11,West,263,0.0,0.0,97,0.00,,---,0.00,VWS V14.01,2013-01-07 01:56:00,
2013-01-06 20:59:00,64.8,63.9,30.12,West,263,0.0,0.0,97,0.00,,---,0.00,VWS V14.01,2013-01-07 01:59:00,
2013-01-06 21:00:00,64.9,64.0,30.12,West,263,0.0,0.0,97,0.00,,---,0.00,VWS V14.01,2013-01-07 02:00:00,
2013-01-06 21:02:00,64.8,63.9,30.12,West,263,0.0,0.0,97,0.00,,---,0.00,VWS V14.01,2013-01-07 02:02:00,
2013-01-06 21:06:00,64.9,64.0,30.12,West,263,0.0,1.0,97,0.00,,---,0.00,VWS V14.01,2013-01-07 02:06:00,
2013-01-06 21:07:00,64.9,64.0,30.12,West,263,0.0,0.0,97,0.00,,---,0.00,VWS V14.01,2013-01-07 02:07:00,
2013-01-06 21:11:00,64.9,64.0,30.12,West,263,0.0,0.0,97,0.00,,---,0.00,VWS V14.01,2013-01-07 02:11:00,
2013-01-06 21:12:00,64.9,64.0,30.12,West,263,0.0,0.0,97,0.00,,---,0.00,VWS V14.01,2013-01-07 02:12:00,
2013-01-06 21:13:00,64.9,64.0,30.12,West,263,0.0,1.0,97,0.00,,---,0.00,VWS V14.01,2013-01-07 02:13:00,
2013-01-06 21:17:00,65.0,64.1,30.12,West,263,1.0,2.0,97,0.00,,---,0.00,VWS V14.01,2013-01-07 02:17:00,
2013-01-06 21:19:00,65.0,64.1,30.12,West,263,0.0,2.0,97,0.00,,---,0.00,VWS V14.01,2013-01-07 02:19:00,
2013-01-06 21:20:00,65.0,64.1,30.12,West,263,1.0,3.0,97,0.00,,---,0.00,VWS V14.01,2013-01-07 02:20:00,
2013-01-06 21:23:00,65.1,64.2,30.12,West,263,0.0,1.0,97,0.00,,---,0.00,VWS V14.01,2013-01-07 02:23:00,
2013-01-06 21:24:00,65.1,64.2,30.12,West,263,0.0,1.0,97,0.00,,---,0.00,VWS V14.01,2013-01-07 02:24:00,
2013-01-06 21:25:00,65.1,64.2,30.12,West,263,0.0,1.0,97,0.00,,---,0.00,VWS V14.01,2013-01-07 02:25:00,
2013-01-06 21:29:00,65.1,64.2,30.13,West,263,0.0,1.0,97,0.00,,---,0.00,VWS V14.01,2013-01-07 02:29:00,
2013-01-06 21:30:00,65.1,64.2,30.13,West,263,0.0,1.0,97,0.00,,---,0.00,VWS V14.01,2013-01-07 02:30:00,
2013-01-06 21:31:00,65.1,64.2,30.13,West,263,1.0,1.0,97,0.00,,---,0.00,VWS V14.01,2013-01-07 02:31:00,
2013-01-06 21:35:00,65.2,64.3,30.13,West,263,0.0,1.0,97,0.00,,---,0.00,VWS V14.01,2013-01-07 02:35:00,
2013-01-06 21:36:00,65.2,64.3,30.13,West,263,0.0,1.0,97,0.00,,---,0.00,VWS V14.01,2013-01-07 02:36:00,
2013-01-06 21:40:00,65.2,64.3,30.13,West,263,1.0,1.0,97,0.00,,---,0.00,VWS V14.01,2013-01-07 02:40:00,
2013-01-06 21:41:00,65.2,64.3,30.13,West,263,1.0,1.0,97,0.00,,---,0.00,VWS V14.01,2013-01-07 02:41:00,
2013-01-06 21:42:00,65.3,64.4,30.14,West,280,2.0,2.0,97,0.00,,---,0.00,VWS V14.01,2013-01-07 02:42:00,
2013-01-06 21:46:00,65.2,64.3,30.14,NNW,332,1.0,5.0,97,0.00,,---,0.00,VWS V14.01,2013-01-07 02:46:00,
2013-01-06 21:47:00,65.2,64.3,30.14,NW,317,1.0,3.0,97,0.00,,---,0.00,VWS V14.01,2013-01-07 02:47:00,
2013-01-06 21:49:00,65.2,64.3,30.14,NW,317,0.0,3.0,97,0.00,,---,0.00,VWS V14.01,2013-01-07 02:49:00,
2013-01-06 21:51:00,65.1,64.2,30.14,NNW,330,1.0,1.0,97,0.00,,---,0.00,VWS V14.01,2013-01-07 02:51:00,
2013-01-06 21:52:00,65.1,64.2,30.14,NNW,331,3.0,3.0,97,0.00,,---,0.00,VWS V14.01,2013-01-07 02:52:00,
2013-01-06 21:53:00,65.1,64.2,30.14,NW,316,2.0,4.0,97,0.00,,---,0.00,VWS V14.01,2013-01-07 02:53:00,
2013-01-06 21:54:00,65.0,64.1,30.14,NNW,333,2.0,4.0,97,0.00,,---,0.00,VWS V14.01,2013-01-07 02:54:00,
2013-01-06 21:58:00,64.9,63.7,30.14,North,355,3.0,4.0,96,0.00,,---,0.00,VWS V14.01,2013-01-07 02:58:00,
2013-01-06 21:59:00,64.9,63.7,30.14,North,355,0.0,4.0,96,0.00,,---,0.00,VWS V14.01,2013-01-07 02:59:00,
2013-01-06 22:00:00,64.9,63.7,30.14,North,355,1.0,4.0,96,0.00,,---,0.00,VWS V14.01,2013-01-07 03:00:00,
2013-01-06 22:04:00,64.8,63.6,30.14,NNW,338,1.0,4.0,96,0.00,,---,0.00,VWS V14.01,2013-01-07 03:04:00,
2013-01-06 22:05:00,64.8,63.6,30.14,NNW,338,1.0,4.0,96,0.00,,---,0.00,VWS V14.01,2013-01-07 03:05:00,
2013-01-06 22:06:00,64.7,63.5,30.14,NNW,347,1.0,4.0,96,0.00,,---,0.00,VWS V14.01,2013-01-07 03:06:00,
2013-01-06 22:09:00,64.6,63.4,30.14,NW,309,0.0,3.0,96,0.00,,---,0.00,VWS V14.01,2013-01-07 03:09:00,
2013-01-06 22:10:00,64.6,63.4,30.14,NW,309,0.0,3.0,96,0.00,,---,0.00,VWS V14.01,2013-01-07 03:10:00,
2013-01-06 22:13:00,64.5,63.3,30.14,NNE,16,0.0,2.0,96,0.00,,---,0.00,VWS V14.01,2013-01-07 03:13:00,
2013-01-06 22:15:00,64.5,63.3,30.14,NNE,16,0.0,2.0,96,0.00,,---,0.00,VWS V14.01,2013-01-07 03:15:00,
2013-01-06 22:18:00,64.5,63.6,30.15,NNE,15,0.0,1.0,97,0.00,,---,0.00,VWS V14.01,2013-01-07 03:18:00,
2013-01-06 22:19:00,64.5,63.6,30.15,NNE,15,0.0,1.0,97,0.00,,---,0.00,VWS V14.01,2013-01-07 03:19:00,
2013-01-06 22:20:00,64.5,63.6,30.15,North,9,0.0,1.0,97,0.00,,---,0.00,VWS V14.01,2013-01-07 03:20:00,
2013-01-06 22:21:00,64.4,63.5,30.15,North,9,3.0,3.0,97,0.00,,---,0.00,VWS V14.01,2013-01-07 03:21:00,
2013-01-06 22:25:00,64.4,63.2,30.15,NNE,15,0.0,4.0,96,0.00,,---,0.00,VWS V14.01,2013-01-07 03:25:00,
2013-01-06 22:26:00,64.3,63.1,30.15,NNE,13,2.0,4.0,96,0.00,,---,0.00,VWS V14.01,2013-01-07 03:26:00,
2013-01-06 22:27:00,64.3,63.1,30.15,NNW,336,1.0,3.0,96,0.00,,---,0.00,VWS V14.01,2013-01-07 03:27:00,
2013-01-06 22:30:00,64.3,63.1,30.14,NNE,24,1.0,3.0,96,0.00,,---,0.00,VWS V14.01,2013-01-07 03:30:00,
2013-01-06 22:31:00,64.3,63.1,30.14,North,350,3.0,3.0,96,0.00,,---,0.00,VWS V14.01,2013-01-07 03:31:00,
2013-01-06 22:32:00,64.3,63.1,30.14,North,351,1.0,3.0,96,0.00,,---,0.00,VWS V14.01,2013-01-07 03:32:00,
2013-01-06 22:36:00,64.2,63.0,30.14,NW,309,0.0,4.0,96,0.00,,---,0.00,VWS V14.01,2013-01-07 03:36:00,
2013-01-06 22:37:00,64.2,63.3,30.14,NW,313,1.0,1.0,97,0.00,,---,0.00,VWS V14.01,2013-01-07 03:37:00,
2013-01-06 22:38:00,64.2,63.3,30.14,NW,313,0.0,1.0,97,0.00,,---,0.00,VWS V14.01,2013-01-07 03:38:00,
2013-01-06 22:41:00,64.2,63.3,30.14,NW,323,0.0,2.0,97,0.00,,---,0.00,VWS V14.01,2013-01-07 03:41:00,
2013-01-06 22:43:00,64.2,63.3,30.14,North,355,0.0,5.0,97,0.01,,---,0.01,VWS V14.01,2013-01-07 03:43:00,
2013-01-06 22:44:00,64.2,63.3,30.14,North,355,0.0,5.0,97,0.01,,---,0.01,VWS V14.01,2013-01-07 03:44:00,
2013-01-06 22:46:00,64.2,63.3,30.14,North,355,2.0,5.0,97,0.01,,---,0.01,VWS V14.01,2013-01-07 03:46:00,
2013-01-06 22:48:00,64.2,63.3,30.14,NNW,333,1.0,3.0,97,0.01,,---,0.01,VWS V14.01,2013-01-07 03:48:00,
2013-01-06 22:49:00,64.1,63.2,30.14,NNW,334,0.0,3.0,97,0.01,,---,0.01,VWS V14.01,2013-01-07 03:49:00,
2013-01-06 22:51:00,64.1,63.2,30.14,NNW,327,0.0,0.0,97,0.01,,---,0.01,VWS V14.01,2013-01-07 03:51:00,
2013-01-06 22:52:00,64.1,63.2,30.14,NNW,331,0.0,2.0,97,0.01,,---,0.01,VWS V14.01,2013-01-07 03:52:00,
2013-01-06 22:53:00,64.1,63.2,30.14,NNW,332,0.0,3.0,97,0.01,,---,0.01,VWS V14.01,2013-01-07 03:53:00,
2013-01-06 22:54:00,64.1,63.2,30.14,NNW,336,2.0,3.0,97,0.01,,---,0.01,VWS V14.01,2013-01-07 03:54:00,
2013-01-06 22:56:00,64.1,63.2,30.13,NW,314,5.0,5.0,97,0.01,,---,0.01,VWS V14.01,2013-01-07 03:56:00,
2013-01-06 22:59:00,64.1,63.2,30.13,West,276,1.0,5.0,97,0.01,,---,0.01,VWS V14.01,2013-01-07 03:59:00,
2013-01-06 23:00:00,64.1,63.2,30.13,NNW,342,1.0,5.0,97,0.01,,---,0.01,VWS V14.01,2013-01-07 04:00:00,
2013-01-06 23:04:00,64.1,63.2,30.13,North,349,2.0,4.0,97,0.01,,---,0.01,VWS V14.01,2013-01-07 04:04:00,
2013-01-06 23:05:00,64.1,63.2,30.13,NNW,344,2.0,4.0,97,0.01,,---,0.01,VWS V14.01,2013-01-07 04:05:00,
2013-01-06 23:10:00,64.1,63.2,30.13,NNW,329,1.0,2.0,97,0.01,,---,0.01,VWS V14.01,2013-01-07 04:10:00,
2013-01-06 23:11:00,64.1,63.2,30.13,NNW,338,1.0,2.0,97,0.01,,---,0.01,VWS V14.01,2013-01-07 04:11:00,
2013-01-06 23:12:00,64.1,63.2,30.13,WSW,238,1.0,4.0,97,0.01,,---,0.01,VWS V14.01,2013-01-07 04:12:00,
2013-01-06 23:15:00,64.1,63.2,30.13,NW,317,0.0,5.0,97,0.01,,---,0.01,VWS V14.01,2013-01-07 04:15:00,
2013-01-06 23:16:00,64.1,63.2,30.13,NW,307,0.0,1.0,97,0.01,,---,0.01,VWS V14.01,2013-01-07 04:16:00,
2013-01-06 23:17:00,64.1,63.2,30.13,NW,307,0.0,1.0,97,0.01,,---,0.01,VWS V14.01,2013-01-07 04:17:00,
2013-01-06 23:21:00,64.1,63.2,30.13,NNW,336,2.0,3.0,97,0.01,,---,0.01,VWS V14.01,2013-01-07 04:21:00,
2013-01-06 23:23:00,64.1,63.2,30.13,NNW,337,1.0,3.0,97,0.01,,---,0.01,VWS V14.01,2013-01-07 04:23:00,
2013-01-06 23:26:00,64.1,63.2,30.12,North,360,0.0,3.0,97,0.01,,---,0.01,VWS V14.01,2013-01-07 04:26:00,
2013-01-06 23:27:00,64.1,63.2,30.12,NNW,342,1.0,6.0,97,0.01,,---,0.01,VWS V14.01,2013-01-07 04:27:00,
2013-01-06 23:28:00,64.1,63.2,30.12,NNW,342,0.0,6.0,97,0.01,,---,0.01,VWS V14.01,2013-01-07 04:28:00,
2013-01-06 23:31:00,64.1,63.2,30.13,NNW,348,0.0,6.0,97,0.01,,---,0.01,VWS V14.01,2013-01-07 04:31:00,
2013-01-06 23:33:00,64.1,63.2,30.13,WNW,300,0.0,2.0,97,0.01,,---,0.01,VWS V14.01,2013-01-07 04:33:00,
2013-01-06 23:37:00,64.1,63.2,30.13,WNW,302,1.0,1.0,97,0.01,,---,0.01,VWS V14.01,2013-01-07 04:37:00,
2013-01-06 23:38:00,64.1,63.2,30.13,WNW,302,0.0,1.0,97,0.01,,---,0.01,VWS V14.01,2013-01-07 04:38:00,
2013-01-06 23:39:00,64.0,63.1,30.13,North,351,3.0,3.0,97,0.01,,---,0.01,VWS V14.01,2013-01-07 04:39:00,
2013-01-06 23:42:00,64.0,63.1,30.13,WNW,301,0.0,2.0,97,0.01,,---,0.01,VWS V14.01,2013-01-07 04:42:00,
2013-01-06 23:43:00,64.0,63.1,30.13,WNW,301,0.0,2.0,97,0.01,,---,0.01,VWS V14.01,2013-01-07 04:43:00,
2013-01-06 23:44:00,64.0,63.1,30.13,WNW,301,0.0,2.0,97,0.01,,---,0.01,VWS V14.01,2013-01-07 04:44:00,
2013-01-06 23:45:00,64.0,63.1,30.13,WNW,301,0.0,2.0,97,0.01,,---,0.01,VWS V14.01,2013-01-07 04:45:00,
2013-01-06 23:49:00,64.0,63.1,30.13,NE,50,0.0,2.0,97,0.00,,---,0.01,VWS V14.01,2013-01-07 04:49:00,
2013-01-06 23:50:00,64.0,63.1,30.13,NE,50,0.0,2.0,97,0.00,,---,0.01,VWS V14.01,2013-01-07 04:50:00,
2013-01-06 23:51:00,64.0,63.1,30.13,NNW,346,0.0,2.0,97,0.00,,---,0.01,VWS V14.01,2013-01-07 04:51:00,
2013-01-06 23:54:00,63.9,63.0,30.13,North,360,0.0,2.0,97,0.00,,---,0.01,VWS V14.01,2013-01-07 04:54:00,
2013-01-06 23:56:00,63.9,63.0,30.13,North,360,0.0,2.0,97,0.00,,---,0.01,VWS V14.01,2013-01-07 04:56:00,